GEFSGL_prec_meanprecacc_204.txt.gz
Total_Precipitation_Accumulation
1.63 1.74 1.74 1.72 1.77 1.79 1.67 1.49 1.41 1.40 1.45 1.52 1.63 1.71 1.68 1.68 1.77 1.82 1.80 2.01 2.11 2.11 2.08 2.06 1.96 1.98 1.97 1.91 1.98 2.12 2.28 2.31 2.01 1.65 1.61 1.60 1.57 1.45 1.41 1.31 1.20 1.14 0.96
1.54 1.73 1.82 1.81 1.83 1.78 1.59 1.45 1.43 1.45 1.51 1.55 1.63 1.66 1.57 1.57 1.71 1.74 1.80 1.95 1.99 1.94 1.89 1.87 1.69 1.73 1.77 1.70 1.81 1.89 1.97 2.16 2.10 1.87 1.87 1.89 1.85 1.73 1.67 1.61 1.45 1.24 1.03
1.52 1.84 1.99 1.99 1.90 1.81 1.64 1.45 1.39 1.43 1.51 1.55 1.56 1.57 1.60 1.69 1.75 1.72 1.69 1.66 1.63 1.67 1.82 1.89 1.70 1.67 1.60 1.61 1.65 1.63 1.68 1.82 1.94 1.89 1.88 1.96 1.92 1.89 1.78 1.61 1.50 1.36 1.10
1.41 1.60 1.69 1.60 1.56 1.59 1.52 1.40 1.33 1.34 1.42 1.51 1.56 1.63 1.68 1.71 1.70 1.71 1.71 1.62 1.53 1.53 1.61 1.64 1.60 1.60 1.56 1.64 1.59 1.57 1.58 1.69 1.79 1.81 1.83 1.97 1.99 1.91 1.90 1.72 1.70 1.58 1.41
1.12 1.21 1.33 1.34 1.34 1.34 1.37 1.38 1.34 1.42 1.47 1.55 1.59 1.61 1.56 1.54 1.44 1.42 1.44 1.40 1.43 1.36 1.30 1.29 1.31 1.40 1.41 1.41 1.32 1.45 1.58 1.64 1.68 1.71 1.74 1.91 2.08 2.13 1.96 1.87 1.93 1.88 1.71
1.00 1.11 1.30 1.42 1.45 1.40 1.36 1.39 1.41 1.43 1.48 1.54 1.53 1.58 1.54 1.29 1.37 1.37 1.37 1.48 1.55 1.52 1.44 1.34 1.26 1.23 1.17 1.12 1.09 1.17 1.37 1.51 1.57 1.64 1.65 1.78 1.98 2.18 2.23 2.17 2.07 2.00 1.95
1.12 1.25 1.42 1.46 1.50 1.50 1.42 1.48 1.46 1.53 1.61 1.57 1.52 1.50 1.51 1.54 1.56 1.40 1.27 1.27 1.36 1.40 1.40 1.38 1.23 1.12 1.20 1.14 1.14 1.12 1.12 1.22 1.31 1.45 1.54 1.58 1.73 1.95 2.16 2.12 2.20 2.24 2.23
1.34 1.52 1.60 1.65 1.61 1.60 1.61 1.63 1.68 1.76 1.78 1.73 1.65 1.55 1.58 1.59 1.53 1.32 1.25 1.20 1.25 1.29 1.32 1.33 1.31 1.23 1.23 1.30 1.31 1.25 1.15 1.12 1.16 1.18 1.24 1.36 1.57 1.82 2.09 2.09 2.11 2.20 2.26
1.42 1.56 1.70 1.78 1.77 1.79 1.81 1.76 1.80 1.89 1.86 1.79 1.75 1.76 1.71 1.77 1.77 1.55 1.47 1.37 1.41 1.43 1.43 1.40 1.38 1.30 1.36 1.30 1.25 1.24 1.19 1.14 1.14 1.18 1.17 1.29 1.50 1.60 1.79 1.90 1.90 1.95 1.91
1.45 1.56 1.71 1.87 1.90 1.94 2.09 2.15 2.08 2.03 1.94 1.98 1.97 1.96 1.95 1.99 2.15 1.91 1.71 1.58 1.63 1.63 1.69 1.62 1.54 1.42 1.41 1.31 1.18 1.19 1.17 1.16 1.24 1.23 1.20 1.21 1.26 1.43 1.59 1.66 1.81 1.93 1.84
1.46 1.59 1.79 1.94 2.02 2.08 2.22 2.31 2.29 2.26 2.24 2.18 2.12 2.14 2.14 2.16 2.27 2.00 1.80 1.71 1.78 1.83 1.79 1.69 1.68 1.61 1.41 1.37 1.28 1.24 1.28 1.29 1.33 1.35 1.31 1.30 1.32 1.39 1.46 1.54 1.72 1.88 1.89
1.40 1.51 1.63 1.78 1.82 1.90 2.12 2.22 2.29 2.32 2.29 2.20 2.14 2.03 2.05 2.05 2.01 1.88 1.75 1.66 1.74 1.87 1.92 1.81 1.74 1.63 1.41 1.33 1.23 1.24 1.25 1.16 1.13 1.25 1.28 1.27 1.26 1.25 1.30 1.44 1.59 1.66 1.70
1.46 1.58 1.71 1.78 1.85 1.94 1.99 1.98 2.06 2.15 2.15 2.06 2.05 1.98 1.95 1.97 1.95 1.72 1.50 1.43 1.46 1.52 1.68 1.75 1.61 1.46 1.27 1.12 1.09 1.07 0.98 0.88 0.92 0.99 1.01 1.00 0.99 1.03 1.16 1.32 1.48 1.54 1.50
1.54 1.58 1.65 1.75 1.78 1.81 1.92 2.00 2.06 2.17 2.27 2.18 2.07 1.98 1.93 1.89 1.78 1.60 1.41 1.32 1.37 1.45 1.54 1.59 1.44 1.30 1.13 1.05 0.99 0.90 0.85 0.89 0.93 0.94 0.95 0.99 1.03 1.08 1.13 1.18 1.28 1.38 1.40
1.40 1.46 1.51 1.54 1.62 1.69 1.74 1.82 1.84 1.92 1.92 1.91 1.85 1.83 1.81 1.76 1.60 1.51 1.38 1.27 1.31 1.41 1.47 1.53 1.42 1.36 1.29 1.20 1.13 1.06 1.04 1.05 1.00 0.98 1.03 1.04 1.04 1.08 1.09 1.11 1.23 1.24 1.19
1.47 1.50 1.44 1.41 1.46 1.50 1.53 1.52 1.51 1.44 1.41 1.38 1.39 1.39 1.37 1.31 1.23 1.11 1.07 1.06 1.09 1.23 1.30 1.46 1.52 1.49 1.44 1.37 1.26 1.15 1.11 1.07 1.02 1.03 1.06 1.07 1.07 1.08 1.14 1.12 1.17 1.20 1.12
1.36 1.40 1.37 1.36 1.41 1.42 1.43 1.46 1.49 1.41 1.30 1.22 1.19 1.18 1.20 1.17 1.11 1.08 1.08 1.11 1.10 1.15 1.20 1.36 1.43 1.38 1.33 1.28 1.16 1.05 1.00 1.02 1.09 1.10 1.12 1.11 1.15 1.17 1.22 1.20 1.16 1.21 1.17
1.16 1.22 1.30 1.38 1.42 1.48 1.51 1.55 1.63 1.70 1.63 1.45 1.28 1.19 1.11 1.05 0.99 0.99 1.01 1.01 1.01 1.03 1.13 1.25 1.27 1.20 1.17 1.13 1.10 1.04 1.02 1.08 1.17 1.15 1.15 1.15 1.16 1.17 1.20 1.21 1.17 1.14 1.14
1.06 1.07 1.09 1.16 1.23 1.31 1.33 1.39 1.48 1.57 1.61 1.51 1.36 1.22 1.09 1.01 0.93 0.90 0.88 0.86 0.92 1.02 1.15 1.18 1.20 1.19 1.10 1.06 1.05 1.01 0.99 1.02 1.10 1.15 1.14 1.15 1.15 1.16 1.15 1.13 1.16 1.15 1.06
1.03 1.02 1.01 1.01 1.02 1.02 1.05 1.12 1.21 1.31 1.37 1.31 1.21 1.09 0.97 0.92 0.82 0.76 0.73 0.73 0.81 0.89 0.97 1.03 1.05 1.02 0.95 0.96 0.98 0.95 0.93 0.99 1.09 1.13 1.10 1.13 1.18 1.17 1.09 1.06 1.08 1.11 1.04
1.01 0.97 0.95 0.94 0.92 0.92 0.94 0.98 1.02 1.06 1.12 1.07 0.99 0.86 0.77 0.71 0.63 0.59 0.60 0.67 0.76 0.85 0.92 0.96 0.95 0.90 0.88 0.92 0.96 0.97 0.94 0.99 1.07 1.09 1.09 1.14 1.18 1.18 1.11 1.07 1.05 1.07 1.07
0.94 0.85 0.79 0.77 0.81 0.84 0.86 0.92 0.97 0.97 0.94 0.90 0.82 0.67 0.61 0.57 0.51 0.49 0.52 0.58 0.65 0.76 0.79 0.79 0.82 0.83 0.80 0.82 0.88 0.94 0.97 1.02 1.10 1.12 1.09 1.11 1.15 1.16 1.18 1.15 1.14 1.11 1.11
0.97 0.85 0.76 0.71 0.71 0.72 0.75 0.83 0.89 0.87 0.79 0.73 0.67 0.61 0.60 0.61 0.52 0.49 0.53 0.61 0.68 0.69 0.67 0.67 0.72 0.77 0.78 0.80 0.81 0.89 0.96 1.01 1.05 1.06 1.11 1.15 1.14 1.11 1.12 1.08 1.07 1.08 1.08
0.94 0.88 0.79 0.68 0.68 0.72 0.75 0.79 0.81 0.80 0.74 0.69 0.65 0.62 0.62 0.65 0.60 0.57 0.62 0.72 0.71 0.64 0.62 0.65 0.68 0.71 0.74 0.80 0.80 0.81 0.86 0.92 0.92 0.92 0.93 0.98 1.00 1.02 1.04 1.02 1.02 1.01 1.04
0.91 0.85 0.76 0.65 0.61 0.65 0.69 0.74 0.78 0.78 0.73 0.66 0.64 0.65 0.68 0.71 0.67 0.66 0.67 0.67 0.64 0.59 0.55 0.60 0.65 0.67 0.69 0.71 0.74 0.74 0.74 0.72 0.72 0.76 0.79 0.83 0.89 0.97 1.03 1.03 1.02 1.01 1.01
0.80 0.74 0.67 0.60 0.54 0.54 0.60 0.68 0.69 0.69 0.66 0.62 0.61 0.62 0.61 0.62 0.61 0.56 0.53 0.52 0.52 0.51 0.52 0.56 0.62 0.63 0.67 0.68 0.61 0.58 0.55 0.50 0.53 0.62 0.65 0.72 0.84 0.92 0.96 1.01 1.00 1.01 0.99

GEFSGL_prec_meanprecacc_210.txt.gz
Total_Precipitation_Accumulation
1.64 1.75 1.76 1.74 1.80 1.82 1.70 1.53 1.46 1.46 1.50 1.57 1.70 1.77 1.72 1.72 1.82 1.88 1.87 2.09 2.19 2.19 2.16 2.15 2.07 2.12 2.13 2.03 2.08 2.20 2.37 2.41 2.11 1.73 1.67 1.65 1.61 1.49 1.44 1.34 1.22 1.17 1.01
1.55 1.74 1.83 1.83 1.85 1.80 1.62 1.48 1.47 1.50 1.56 1.59 1.68 1.70 1.62 1.63 1.77 1.80 1.86 2.04 2.12 2.04 1.98 1.97 1.80 1.83 1.87 1.77 1.87 1.95 2.03 2.21 2.16 1.93 1.91 1.92 1.89 1.77 1.70 1.64 1.47 1.27 1.06
1.52 1.85 2.01 2.00 1.93 1.83 1.66 1.48 1.43 1.46 1.55 1.60 1.61 1.62 1.65 1.75 1.81 1.78 1.75 1.72 1.69 1.74 1.90 1.98 1.78 1.75 1.68 1.68 1.71 1.70 1.75 1.88 2.01 1.94 1.92 1.99 1.96 1.93 1.83 1.65 1.54 1.41 1.14
1.43 1.61 1.71 1.62 1.59 1.60 1.54 1.43 1.35 1.36 1.44 1.53 1.60 1.67 1.73 1.77 1.77 1.78 1.78 1.69 1.60 1.60 1.69 1.72 1.67 1.67 1.63 1.71 1.67 1.66 1.67 1.77 1.89 1.91 1.91 2.03 2.05 1.97 1.96 1.80 1.78 1.65 1.47
1.13 1.24 1.37 1.37 1.36 1.36 1.39 1.40 1.36 1.45 1.49 1.57 1.63 1.65 1.62 1.60 1.50 1.48 1.50 1.46 1.50 1.45 1.38 1.37 1.39 1.47 1.48 1.48 1.38 1.50 1.65 1.72 1.76 1.79 1.82 1.98 2.16 2.20 2.02 1.92 1.98 1.92 1.76
1.02 1.13 1.33 1.45 1.48 1.45 1.41 1.44 1.45 1.48 1.53 1.58 1.56 1.61 1.58 1.33 1.42 1.42 1.41 1.54 1.62 1.60 1.50 1.41 1.34 1.29 1.22 1.18 1.15 1.22 1.42 1.55 1.60 1.68 1.69 1.81 2.02 2.23 2.28 2.22 2.12 2.05 2.02
1.13 1.28 1.46 1.54 1.61 1.61 1.49 1.51 1.49 1.56 1.65 1.62 1.57 1.56 1.58 1.62 1.62 1.46 1.33 1.33 1.43 1.47 1.45 1.43 1.27 1.16 1.24 1.19 1.18 1.15 1.17 1.26 1.34 1.47 1.57 1.61 1.77 2.00 2.23 2.19 2.26 2.30 2.28
1.36 1.55 1.65 1.74 1.69 1.66 1.64 1.66 1.72 1.80 1.83 1.80 1.73 1.66 1.67 1.66 1.58 1.39 1.34 1.29 1.35 1.38 1.40 1.41 1.38 1.28 1.29 1.37 1.36 1.30 1.20 1.15 1.19 1.21 1.28 1.41 1.62 1.89 2.15 2.13 2.14 2.23 2.29
1.44 1.59 1.75 1.84 1.85 1.85 1.87 1.82 1.85 1.93 1.90 1.86 1.83 1.86 1.82 1.84 1.85 1.64 1.59 1.47 1.52 1.54 1.54 1.51 1.47 1.38 1.45 1.38 1.32 1.31 1.25 1.22 1.22 1.24 1.22 1.34 1.55 1.66 1.83 1.92 1.92 1.98 1.93
1.48 1.60 1.76 1.95 1.98 2.02 2.14 2.20 2.11 2.06 1.97 2.02 2.03 2.03 2.03 2.08 2.24 2.00 1.81 1.66 1.71 1.73 1.80 1.74 1.67 1.52 1.51 1.41 1.28 1.31 1.28 1.28 1.34 1.31 1.25 1.25 1.29 1.46 1.63 1.68 1.82 1.95 1.86
1.49 1.61 1.81 1.96 2.04 2.10 2.24 2.32 2.31 2.29 2.27 2.21 2.15 2.18 2.18 2.19 2.31 2.04 1.84 1.75 1.83 1.91 1.89 1.79 1.80 1.74 1.54 1.49 1.40 1.36 1.39 1.38 1.39 1.38 1.33 1.31 1.33 1.40 1.48 1.55 1.74 1.90 1.92
1.42 1.53 1.65 1.80 1.84 1.92 2.14 2.23 2.31 2.34 2.31 2.22 2.15 2.04 2.06 2.06 2.02 1.90 1.77 1.68 1.77 1.91 1.98 1.89 1.83 1.72 1.48 1.40 1.29 1.28 1.29 1.18 1.15 1.26 1.28 1.28 1.27 1.26 1.31 1.45 1.61 1.68 1.72
1.47 1.59 1.72 1.80 1.86 1.96 2.00 2.00 2.08 2.17 2.16 2.08 2.06 1.99 1.96 1.98 1.96 1.73 1.51 1.44 1.47 1.54 1.71 1.80 1.66 1.51 1.31 1.15 1.11 1.08 0.99 0.88 0.92 1.00 1.01 1.01 1.00 1.05 1.17 1.33 1.49 1.55 1.51
1.54 1.59 1.66 1.77 1.79 1.82 1.93 2.01 2.07 2.18 2.28 2.19 2.08 1.99 1.94 1.90 1.79 1.61 1.42 1.33 1.39 1.46 1.56 1.61 1.46 1.33 1.15 1.06 0.99 0.91 0.85 0.89 0.93 0.95 0.96 0.99 1.04 1.09 1.13 1.19 1.29 1.38 1.41
1.40 1.46 1.51 1.54 1.63 1.70 1.75 1.83 1.85 1.93 1.93 1.91 1.86 1.84 1.83 1.78 1.62 1.52 1.39 1.28 1.32 1.42 1.48 1.53 1.43 1.37 1.29 1.20 1.13 1.06 1.04 1.05 1.00 0.98 1.04 1.04 1.04 1.09 1.10 1.11 1.24 1.25 1.20
1.48 1.51 1.44 1.42 1.47 1.51 1.54 1.53 1.52 1.45 1.43 1.39 1.40 1.40 1.39 1.34 1.24 1.12 1.08 1.08 1.11 1.24 1.30 1.47 1.54 1.50 1.45 1.38 1.26 1.16 1.11 1.07 1.02 1.03 1.06 1.08 1.07 1.09 1.14 1.13 1.18 1.21 1.13
1.37 1.41 1.39 1.37 1.43 1.43 1.44 1.46 1.49 1.42 1.30 1.22 1.20 1.18 1.21 1.18 1.13 1.08 1.09 1.13 1.11 1.16 1.21 1.38 1.45 1.40 1.36 1.30 1.18 1.06 1.02 1.03 1.10 1.11 1.13 1.12 1.16 1.18 1.23 1.20 1.17 1.21 1.17
1.18 1.23 1.31 1.39 1.43 1.49 1.52 1.55 1.63 1.70 1.63 1.45 1.28 1.19 1.12 1.06 1.00 0.99 1.02 1.03 1.02 1.04 1.13 1.26 1.28 1.22 1.19 1.15 1.12 1.05 1.03 1.09 1.18 1.16 1.15 1.16 1.17 1.18 1.21 1.22 1.18 1.15 1.15
1.07 1.09 1.11 1.18 1.24 1.31 1.34 1.40 1.48 1.58 1.61 1.51 1.36 1.22 1.09 1.01 0.93 0.90 0.89 0.87 0.93 1.02 1.16 1.19 1.20 1.20 1.12 1.08 1.07 1.02 1.00 1.03 1.11 1.16 1.15 1.16 1.16 1.17 1.17 1.15 1.18 1.17 1.09
1.05 1.04 1.02 1.02 1.03 1.03 1.05 1.13 1.22 1.32 1.37 1.31 1.21 1.10 0.97 0.92 0.82 0.77 0.73 0.73 0.81 0.89 0.97 1.03 1.06 1.03 0.96 0.97 0.98 0.96 0.94 1.00 1.10 1.13 1.11 1.14 1.19 1.19 1.11 1.09 1.10 1.13 1.06
1.03 0.98 0.96 0.95 0.93 0.93 0.95 0.99 1.03 1.07 1.12 1.07 0.99 0.87 0.78 0.71 0.64 0.60 0.61 0.67 0.76 0.85 0.92 0.97 0.96 0.91 0.89 0.92 0.96 0.97 0.94 1.00 1.07 1.09 1.10 1.14 1.19 1.19 1.12 1.09 1.06 1.08 1.09
0.96 0.86 0.80 0.78 0.82 0.85 0.87 0.93 0.98 0.98 0.95 0.91 0.84 0.70 0.65 0.60 0.53 0.50 0.53 0.59 0.65 0.77 0.80 0.80 0.82 0.83 0.80 0.82 0.88 0.94 0.98 1.02 1.10 1.12 1.09 1.11 1.15 1.16 1.18 1.15 1.14 1.11 1.12
0.98 0.86 0.78 0.72 0.72 0.74 0.76 0.85 0.90 0.87 0.79 0.74 0.68 0.63 0.62 0.63 0.54 0.50 0.55 0.62 0.68 0.70 0.67 0.68 0.73 0.77 0.78 0.80 0.81 0.89 0.96 1.01 1.05 1.06 1.12 1.15 1.14 1.12 1.12 1.08 1.08 1.09 1.08
0.96 0.89 0.79 0.69 0.69 0.74 0.77 0.81 0.83 0.81 0.75 0.69 0.65 0.63 0.63 0.66 0.61 0.58 0.62 0.73 0.71 0.64 0.62 0.65 0.69 0.71 0.75 0.80 0.81 0.82 0.87 0.93 0.92 0.92 0.94 0.98 1.01 1.02 1.04 1.03 1.03 1.01 1.04
0.92 0.86 0.77 0.65 0.62 0.66 0.70 0.75 0.79 0.79 0.74 0.67 0.64 0.65 0.68 0.71 0.68 0.66 0.67 0.68 0.64 0.59 0.55 0.60 0.65 0.67 0.70 0.72 0.74 0.75 0.76 0.73 0.74 0.77 0.80 0.84 0.89 0.97 1.03 1.03 1.03 1.02 1.01
0.81 0.75 0.68 0.61 0.55 0.55 0.61 0.68 0.70 0.69 0.67 0.63 0.61 0.62 0.62 0.63 0.61 0.56 0.53 0.53 0.52 0.51 0.52 0.57 0.63 0.64 0.68 0.69 0.62 0.60 0.57 0.53 0.55 0.63 0.65 0.73 0.84 0.92 0.97 1.02 1.00 1.01 1.00

GEFSGL_prec_meanprecacc_216.txt.gz
Total_Precipitation_Accumulation
1.68 1.79 1.80 1.79 1.85 1.88 1.76 1.61 1.56 1.54 1.57 1.64 1.79 1.86 1.80 1.79 1.90 1.97 1.93 2.15 2.25 2.25 2.21 2.21 2.16 2.23 2.23 2.14 2.19 2.33 2.51 2.55 2.25 1.83 1.76 1.74 1.70 1.57 1.50 1.39 1.27 1.21 1.04
1.58 1.77 1.86 1.87 1.90 1.85 1.68 1.54 1.54 1.56 1.62 1.68 1.78 1.78 1.69 1.70 1.85 1.88 1.92 2.10 2.17 2.09 2.04 2.05 1.89 1.93 1.96 1.85 1.96 2.03 2.13 2.32 2.27 2.02 2.00 2.00 1.96 1.84 1.76 1.69 1.52 1.32 1.10
1.54 1.87 2.03 2.04 1.97 1.89 1.71 1.53 1.49 1.52 1.61 1.66 1.67 1.68 1.71 1.82 1.89 1.87 1.84 1.80 1.77 1.81 1.97 2.04 1.85 1.82 1.74 1.74 1.78 1.76 1.82 1.95 2.10 2.05 2.01 2.07 2.02 1.98 1.88 1.70 1.59 1.46 1.18
1.44 1.63 1.74 1.66 1.63 1.64 1.57 1.47 1.41 1.41 1.49 1.58 1.64 1.72 1.78 1.83 1.85 1.88 1.87 1.78 1.71 1.70 1.78 1.81 1.77 1.73 1.68 1.76 1.71 1.71 1.74 1.85 1.97 1.99 1.97 2.08 2.10 2.01 2.01 1.83 1.81 1.68 1.49
1.16 1.28 1.41 1.42 1.40 1.38 1.42 1.45 1.42 1.50 1.53 1.60 1.67 1.70 1.69 1.69 1.58 1.57 1.60 1.58 1.64 1.57 1.49 1.49 1.49 1.54 1.54 1.53 1.43 1.56 1.71 1.79 1.82 1.85 1.87 2.03 2.20 2.24 2.06 1.96 2.01 1.96 1.79
1.03 1.14 1.35 1.47 1.49 1.47 1.49 1.55 1.54 1.54 1.57 1.61 1.60 1.67 1.66 1.43 1.51 1.50 1.49 1.60 1.69 1.67 1.57 1.49 1.41 1.36 1.28 1.23 1.21 1.28 1.48 1.62 1.67 1.74 1.75 1.87 2.07 2.27 2.32 2.26 2.16 2.09 2.05
1.14 1.28 1.46 1.55 1.63 1.64 1.57 1.64 1.57 1.60 1.68 1.65 1.60 1.59 1.63 1.68 1.68 1.51 1.37 1.37 1.48 1.51 1.50 1.48 1.33 1.22 1.31 1.26 1.25 1.22 1.24 1.34 1.42 1.55 1.64 1.67 1.81 2.04 2.27 2.23 2.30 2.33 2.31
1.37 1.56 1.66 1.75 1.71 1.67 1.66 1.68 1.74 1.83 1.85 1.82 1.76 1.69 1.70 1.69 1.61 1.41 1.37 1.33 1.39 1.42 1.45 1.46 1.45 1.37 1.38 1.45 1.44 1.38 1.27 1.22 1.24 1.27 1.35 1.47 1.67 1.93 2.19 2.17 2.18 2.27 2.32
1.46 1.60 1.76 1.86 1.86 1.87 1.89 1.84 1.87 1.95 1.92 1.87 1.85 1.88 1.84 1.86 1.87 1.67 1.62 1.51 1.55 1.58 1.59 1.58 1.55 1.48 1.56 1.49 1.41 1.38 1.31 1.26 1.25 1.29 1.27 1.40 1.60 1.70 1.87 1.96 1.95 2.01 1.96
1.49 1.61 1.77 1.97 2.01 2.05 2.18 2.22 2.13 2.08 1.98 2.03 2.05 2.05 2.05 2.10 2.27 2.04 1.83 1.68 1.73 1.74 1.82 1.78 1.75 1.61 1.60 1.50 1.37 1.38 1.34 1.33 1.39 1.36 1.30 1.30 1.35 1.51 1.68 1.72 1.85 1.98 1.88
1.50 1.62 1.82 1.98 2.07 2.13 2.27 2.36 2.34 2.31 2.29 2.23 2.17 2.20 2.19 2.20 2.33 2.07 1.87 1.77 1.85 1.93 1.90 1.82 1.85 1.81 1.62 1.59 1.49 1.43 1.45 1.43 1.43 1.43 1.38 1.36 1.39 1.47 1.53 1.60 1.79 1.94 1.94
1.42 1.53 1.66 1.82 1.87 1.95 2.18 2.28 2.36 2.38 2.34 2.25 2.17 2.06 2.07 2.07 2.02 1.91 1.78 1.70 1.78 1.92 1.99 1.90 1.85 1.78 1.54 1.45 1.33 1.31 1.31 1.20 1.16 1.27 1.30 1.31 1.30 1.29 1.34 1.48 1.63 1.70 1.74
1.48 1.60 1.73 1.81 1.88 1.99 2.08 2.10 2.16 2.22 2.20 2.11 2.08 2.00 1.97 1.99 1.97 1.74 1.51 1.45 1.47 1.54 1.72 1.81 1.68 1.54 1.33 1.17 1.12 1.09 0.99 0.89 0.93 1.01 1.02 1.02 1.01 1.06 1.18 1.34 1.51 1.57 1.53
1.55 1.60 1.67 1.78 1.81 1.84 1.95 2.04 2.14 2.23 2.32 2.22 2.10 2.01 1.96 1.91 1.80 1.61 1.42 1.33 1.39 1.47 1.56 1.62 1.48 1.35 1.17 1.07 1.00 0.91 0.85 0.89 0.94 0.96 0.97 1.00 1.05 1.10 1.15 1.20 1.30 1.40 1.43
1.42 1.47 1.52 1.55 1.64 1.71 1.76 1.84 1.87 1.95 1.95 1.94 1.88 1.86 1.85 1.79 1.63 1.53 1.39 1.28 1.33 1.43 1.49 1.54 1.43 1.37 1.30 1.21 1.13 1.07 1.05 1.05 1.00 0.99 1.04 1.05 1.05 1.10 1.11 1.13 1.25 1.27 1.21
1.49 1.52 1.45 1.42 1.47 1.52 1.55 1.54 1.52 1.45 1.44 1.40 1.41 1.41 1.41 1.35 1.25 1.13 1.10 1.09 1.12 1.25 1.31 1.47 1.54 1.50 1.46 1.38 1.27 1.16 1.11 1.07 1.02 1.04 1.07 1.08 1.08 1.10 1.16 1.14 1.20 1.23 1.15
1.38 1.42 1.40 1.38 1.44 1.43 1.45 1.47 1.50 1.42 1.30 1.22 1.20 1.19 1.21 1.18 1.14 1.10 1.11 1.15 1.12 1.17 1.22 1.38 1.45 1.40 1.37 1.31 1.19 1.07 1.02 1.04 1.10 1.12 1.14 1.14 1.18 1.20 1.25 1.22 1.19 1.23 1.19
1.19 1.25 1.32 1.40 1.45 1.51 1.53 1.57 1.64 1.70 1.63 1.45 1.29 1.19 1.12 1.06 1.01 1.01 1.04 1.04 1.02 1.04 1.14 1.26 1.28 1.22 1.19 1.16 1.12 1.06 1.04 1.09 1.18 1.17 1.16 1.17 1.19 1.21 1.23 1.24 1.20 1.18 1.17
1.10 1.11 1.12 1.20 1.27 1.34 1.35 1.41 1.49 1.58 1.61 1.51 1.36 1.22 1.09 1.01 0.94 0.92 0.90 0.87 0.93 1.03 1.16 1.19 1.20 1.20 1.13 1.08 1.08 1.02 1.00 1.03 1.11 1.17 1.15 1.17 1.17 1.19 1.19 1.17 1.21 1.20 1.11
1.07 1.06 1.04 1.04 1.04 1.04 1.06 1.14 1.23 1.32 1.38 1.31 1.21 1.10 0.98 0.92 0.82 0.77 0.73 0.74 0.81 0.89 0.97 1.03 1.06 1.03 0.96 0.97 0.98 0.96 0.94 1.00 1.10 1.13 1.11 1.14 1.19 1.19 1.12 1.10 1.11 1.14 1.07
1.06 1.02 0.99 0.97 0.95 0.94 0.96 1.00 1.05 1.08 1.13 1.08 1.00 0.87 0.78 0.72 0.64 0.60 0.61 0.67 0.77 0.86 0.93 0.97 0.96 0.91 0.89 0.92 0.96 0.98 0.95 1.00 1.07 1.09 1.10 1.14 1.19 1.19 1.12 1.09 1.07 1.08 1.09
1.01 0.91 0.85 0.83 0.87 0.89 0.90 0.95 1.00 1.00 0.97 0.92 0.85 0.70 0.66 0.60 0.53 0.51 0.54 0.60 0.67 0.79 0.81 0.81 0.84 0.83 0.81 0.82 0.88 0.94 0.98 1.02 1.10 1.12 1.09 1.11 1.16 1.17 1.18 1.15 1.15 1.12 1.12
1.02 0.90 0.81 0.76 0.76 0.78 0.80 0.88 0.92 0.89 0.82 0.75 0.69 0.64 0.62 0.64 0.54 0.51 0.56 0.64 0.69 0.71 0.68 0.69 0.75 0.78 0.79 0.81 0.82 0.90 0.97 1.02 1.06 1.06 1.12 1.15 1.14 1.12 1.13 1.09 1.09 1.10 1.09
0.98 0.91 0.82 0.71 0.71 0.77 0.80 0.84 0.86 0.84 0.77 0.70 0.66 0.63 0.63 0.66 0.61 0.59 0.63 0.73 0.72 0.65 0.63 0.67 0.70 0.72 0.76 0.82 0.81 0.82 0.87 0.93 0.92 0.92 0.94 0.99 1.01 1.03 1.05 1.04 1.04 1.03 1.05
0.94 0.88 0.78 0.67 0.64 0.68 0.72 0.77 0.81 0.81 0.76 0.68 0.66 0.66 0.69 0.72 0.68 0.66 0.67 0.68 0.65 0.61 0.57 0.61 0.67 0.69 0.72 0.74 0.76 0.76 0.76 0.74 0.74 0.78 0.81 0.86 0.92 0.99 1.05 1.05 1.05 1.04 1.03
0.84 0.77 0.70 0.62 0.56 0.57 0.63 0.71 0.71 0.70 0.67 0.64 0.62 0.63 0.63 0.63 0.61 0.56 0.54 0.53 0.53 0.52 0.53 0.58 0.64 0.65 0.69 0.71 0.64 0.61 0.58 0.53 0.56 0.65 0.68 0.75 0.87 0.95 0.99 1.04 1.02 1.03 1.01

GEFSGL_prec_meanprecacc_222.txt.gz
Total_Precipitation_Accumulation
1.75 1.87 1.87 1.88 1.95 1.98 1.86 1.69 1.63 1.60 1.63 1.70 1.86 1.93 1.87 1.86 1.98 2.03 1.98 2.22 2.32 2.30 2.27 2.27 2.22 2.27 2.27 2.17 2.23 2.37 2.56 2.61 2.31 1.89 1.80 1.79 1.75 1.61 1.54 1.44 1.32 1.25 1.08
1.63 1.82 1.92 1.93 1.96 1.92 1.74 1.60 1.59 1.61 1.68 1.74 1.84 1.86 1.76 1.77 1.91 1.94 1.99 2.19 2.27 2.16 2.11 2.10 1.93 1.97 2.00 1.89 1.99 2.07 2.17 2.36 2.32 2.07 2.04 2.05 2.01 1.88 1.82 1.75 1.57 1.35 1.12
1.57 1.91 2.07 2.07 2.00 1.92 1.74 1.55 1.51 1.55 1.65 1.71 1.71 1.72 1.76 1.87 1.95 1.94 1.93 1.91 1.89 1.94 2.11 2.16 1.94 1.93 1.83 1.81 1.83 1.80 1.87 2.00 2.15 2.09 2.05 2.10 2.05 2.02 1.93 1.74 1.63 1.49 1.20
1.45 1.65 1.76 1.68 1.64 1.65 1.58 1.49 1.44 1.46 1.54 1.61 1.67 1.75 1.81 1.87 1.90 1.94 1.96 1.89 1.85 1.86 1.96 1.99 1.92 1.87 1.79 1.87 1.81 1.78 1.80 1.91 2.03 2.05 2.02 2.14 2.15 2.07 2.06 1.87 1.85 1.71 1.52
1.16 1.28 1.42 1.42 1.40 1.39 1.45 1.49 1.51 1.59 1.59 1.64 1.70 1.73 1.72 1.72 1.63 1.63 1.68 1.68 1.78 1.75 1.66 1.66 1.64 1.70 1.69 1.68 1.54 1.65 1.79 1.86 1.90 1.92 1.95 2.11 2.28 2.31 2.12 2.02 2.07 2.00 1.82
1.04 1.15 1.35 1.48 1.51 1.49 1.52 1.60 1.64 1.62 1.62 1.64 1.63 1.70 1.69 1.46 1.58 1.56 1.53 1.65 1.74 1.73 1.64 1.55 1.47 1.45 1.40 1.37 1.33 1.38 1.57 1.72 1.78 1.86 1.87 1.98 2.18 2.37 2.42 2.36 2.24 2.14 2.09
1.16 1.30 1.49 1.58 1.66 1.67 1.61 1.70 1.65 1.65 1.70 1.68 1.63 1.62 1.65 1.70 1.70 1.52 1.39 1.40 1.51 1.55 1.52 1.50 1.34 1.25 1.36 1.32 1.33 1.30 1.31 1.43 1.53 1.67 1.76 1.76 1.91 2.14 2.37 2.32 2.37 2.38 2.35
1.38 1.57 1.69 1.78 1.74 1.71 1.70 1.73 1.79 1.87 1.89 1.86 1.80 1.71 1.72 1.71 1.63 1.43 1.40 1.36 1.41 1.44 1.46 1.48 1.46 1.39 1.40 1.48 1.48 1.42 1.31 1.27 1.31 1.35 1.45 1.56 1.76 2.01 2.26 2.24 2.24 2.32 2.35
1.47 1.61 1.78 1.87 1.89 1.91 1.93 1.87 1.92 2.00 1.96 1.91 1.88 1.91 1.86 1.88 1.89 1.69 1.65 1.54 1.56 1.59 1.60 1.59 1.57 1.50 1.58 1.51 1.45 1.43 1.38 1.36 1.35 1.38 1.36 1.48 1.68 1.78 1.93 2.01 2.00 2.04 1.98
1.51 1.62 1.79 2.00 2.05 2.09 2.20 2.25 2.18 2.12 2.02 2.07 2.09 2.07 2.07 2.11 2.29 2.06 1.88 1.73 1.76 1.77 1.84 1.80 1.77 1.63 1.62 1.52 1.41 1.44 1.44 1.44 1.47 1.42 1.36 1.35 1.40 1.58 1.74 1.77 1.90 2.02 1.90
1.52 1.65 1.84 2.01 2.11 2.16 2.30 2.39 2.37 2.34 2.32 2.27 2.20 2.22 2.22 2.24 2.38 2.12 1.92 1.81 1.88 1.97 1.94 1.85 1.87 1.83 1.64 1.61 1.53 1.48 1.47 1.44 1.45 1.45 1.42 1.41 1.44 1.52 1.60 1.68 1.87 2.04 2.03
1.44 1.54 1.67 1.84 1.89 1.97 2.20 2.31 2.38 2.41 2.37 2.28 2.21 2.10 2.13 2.13 2.07 1.95 1.83 1.75 1.83 1.95 2.01 1.92 1.87 1.79 1.55 1.47 1.35 1.33 1.32 1.21 1.17 1.29 1.32 1.35 1.36 1.35 1.39 1.55 1.72 1.80 1.85
1.49 1.62 1.74 1.83 1.89 2.01 2.10 2.12 2.19 2.26 2.22 2.13 2.12 2.05 2.02 2.04 2.01 1.77 1.54 1.48 1.50 1.56 1.73 1.82 1.69 1.55 1.34 1.17 1.13 1.09 0.99 0.89 0.94 1.02 1.03 1.03 1.04 1.11 1.23 1.38 1.54 1.60 1.56
1.57 1.62 1.68 1.80 1.83 1.86 1.97 2.06 2.16 2.26 2.34 2.25 2.15 2.05 2.02 1.96 1.83 1.65 1.46 1.37 1.42 1.49 1.58 1.64 1.49 1.36 1.18 1.07 1.00 0.91 0.86 0.90 0.94 0.97 0.99 1.02 1.07 1.13 1.17 1.23 1.33 1.42 1.44
1.45 1.50 1.55 1.57 1.65 1.73 1.77 1.85 1.87 1.96 1.97 1.96 1.91 1.88 1.87 1.81 1.64 1.55 1.42 1.31 1.37 1.47 1.52 1.56 1.45 1.39 1.31 1.22 1.14 1.07 1.05 1.06 1.01 0.99 1.05 1.06 1.06 1.11 1.12 1.14 1.27 1.29 1.24
1.52 1.54 1.47 1.43 1.48 1.53 1.56 1.55 1.54 1.47 1.46 1.42 1.42 1.43 1.42 1.36 1.26 1.15 1.11 1.10 1.15 1.29 1.34 1.49 1.55 1.51 1.46 1.39 1.27 1.16 1.11 1.08 1.03 1.04 1.08 1.09 1.09 1.11 1.16 1.15 1.21 1.24 1.17
1.40 1.44 1.41 1.39 1.45 1.44 1.45 1.48 1.51 1.43 1.32 1.24 1.21 1.20 1.22 1.19 1.14 1.11 1.12 1.16 1.14 1.20 1.24 1.39 1.46 1.40 1.37 1.31 1.19 1.08 1.03 1.05 1.12 1.13 1.15 1.14 1.18 1.21 1.26 1.23 1.20 1.24 1.20
1.21 1.26 1.33 1.41 1.46 1.51 1.54 1.57 1.64 1.71 1.64 1.46 1.29 1.20 1.13 1.07 1.01 1.01 1.05 1.05 1.03 1.05 1.15 1.27 1.29 1.23 1.20 1.16 1.13 1.06 1.05 1.10 1.20 1.19 1.18 1.18 1.20 1.22 1.25 1.26 1.22 1.20 1.19
1.13 1.15 1.16 1.23 1.30 1.36 1.37 1.41 1.49 1.58 1.61 1.51 1.36 1.22 1.10 1.02 0.95 0.92 0.91 0.88 0.93 1.03 1.16 1.19 1.21 1.21 1.13 1.09 1.08 1.03 1.01 1.03 1.12 1.17 1.16 1.17 1.18 1.20 1.20 1.19 1.23 1.22 1.13
1.10 1.11 1.09 1.09 1.09 1.09 1.11 1.16 1.24 1.33 1.38 1.32 1.22 1.10 0.98 0.92 0.82 0.77 0.73 0.74 0.82 0.89 0.98 1.03 1.06 1.03 0.96 0.97 0.99 0.96 0.94 1.00 1.10 1.14 1.11 1.14 1.20 1.20 1.12 1.10 1.12 1.15 1.08
1.09 1.05 1.02 1.00 0.98 0.98 1.00 1.04 1.08 1.11 1.15 1.10 1.02 0.88 0.79 0.72 0.65 0.60 0.62 0.68 0.77 0.86 0.93 0.97 0.96 0.91 0.89 0.92 0.96 0.98 0.95 1.00 1.08 1.09 1.10 1.14 1.19 1.19 1.13 1.09 1.07 1.09 1.10
1.03 0.93 0.87 0.85 0.89 0.93 0.95 1.00 1.04 1.03 1.00 0.94 0.87 0.72 0.67 0.61 0.54 0.52 0.55 0.61 0.68 0.79 0.82 0.82 0.84 0.84 0.81 0.83 0.89 0.95 0.99 1.03 1.11 1.12 1.10 1.12 1.16 1.17 1.18 1.16 1.15 1.12 1.13
1.04 0.91 0.83 0.78 0.78 0.81 0.84 0.90 0.94 0.91 0.83 0.76 0.70 0.65 0.63 0.64 0.54 0.51 0.56 0.64 0.70 0.71 0.69 0.70 0.75 0.79 0.80 0.83 0.84 0.91 0.98 1.03 1.07 1.08 1.13 1.16 1.15 1.12 1.13 1.09 1.09 1.10 1.09
1.00 0.93 0.83 0.73 0.74 0.79 0.82 0.86 0.87 0.85 0.77 0.71 0.67 0.64 0.64 0.67 0.62 0.59 0.63 0.74 0.73 0.66 0.64 0.67 0.71 0.73 0.77 0.83 0.83 0.83 0.88 0.95 0.94 0.94 0.95 0.99 1.01 1.03 1.06 1.04 1.04 1.03 1.05
0.95 0.89 0.80 0.70 0.67 0.70 0.73 0.79 0.82 0.82 0.77 0.69 0.67 0.68 0.70 0.73 0.69 0.67 0.68 0.69 0.66 0.62 0.58 0.63 0.68 0.69 0.72 0.75 0.77 0.78 0.78 0.76 0.76 0.80 0.83 0.88 0.93 1.01 1.06 1.06 1.05 1.04 1.03
0.85 0.79 0.72 0.65 0.58 0.59 0.65 0.72 0.73 0.72 0.69 0.65 0.64 0.65 0.64 0.64 0.62 0.57 0.54 0.54 0.53 0.53 0.54 0.59 0.65 0.66 0.70 0.71 0.65 0.62 0.60 0.56 0.59 0.67 0.70 0.76 0.87 0.95 1.00 1.05 1.03 1.04 1.02

GEFSGL_prec_meanprecacc_228.txt.gz
Total_Precipitation_Accumulation
1.79 1.96 1.93 1.91 1.99 2.03 1.90 1.73 1.67 1.64 1.68 1.75 1.92 1.98 1.92 1.93 2.04 2.09 2.05 2.29 2.39 2.36 2.32 2.32 2.28 2.34 2.33 2.22 2.28 2.41 2.61 2.65 2.35 1.92 1.83 1.82 1.79 1.64 1.57 1.48 1.38 1.32 1.16
1.66 1.86 1.95 1.96 2.00 1.97 1.79 1.65 1.63 1.64 1.70 1.77 1.89 1.91 1.82 1.82 1.97 2.00 2.05 2.25 2.34 2.23 2.18 2.19 2.03 2.06 2.09 1.95 2.05 2.12 2.22 2.41 2.36 2.11 2.08 2.08 2.05 1.92 1.85 1.79 1.61 1.40 1.17
1.58 1.91 2.08 2.08 2.02 1.94 1.76 1.56 1.52 1.57 1.68 1.73 1.75 1.77 1.80 1.90 1.98 1.98 1.96 1.94 1.93 1.98 2.17 2.25 2.08 2.08 1.96 1.91 1.91 1.86 1.92 2.06 2.20 2.13 2.09 2.14 2.09 2.07 1.97 1.78 1.66 1.53 1.24
1.46 1.65 1.77 1.69 1.65 1.66 1.59 1.50 1.45 1.48 1.56 1.64 1.71 1.78 1.84 1.89 1.92 1.97 1.99 1.92 1.88 1.91 2.03 2.08 2.05 1.99 1.90 1.96 1.88 1.84 1.86 1.97 2.08 2.09 2.05 2.18 2.21 2.13 2.11 1.92 1.91 1.78 1.58
1.16 1.28 1.42 1.43 1.41 1.40 1.46 1.51 1.53 1.62 1.62 1.68 1.73 1.75 1.75 1.74 1.65 1.66 1.71 1.71 1.82 1.79 1.71 1.73 1.73 1.76 1.75 1.75 1.61 1.71 1.87 1.93 1.97 1.99 2.01 2.18 2.35 2.39 2.21 2.12 2.16 2.10 1.92
1.04 1.15 1.35 1.48 1.51 1.51 1.55 1.63 1.68 1.68 1.68 1.71 1.67 1.72 1.72 1.48 1.60 1.59 1.56 1.67 1.77 1.76 1.66 1.57 1.49 1.46 1.42 1.40 1.36 1.43 1.64 1.78 1.85 1.93 1.95 2.08 2.28 2.47 2.53 2.48 2.37 2.27 2.22
1.16 1.30 1.49 1.59 1.68 1.69 1.65 1.74 1.71 1.71 1.75 1.72 1.66 1.64 1.68 1.72 1.72 1.54 1.41 1.41 1.53 1.56 1.53 1.52 1.36 1.26 1.39 1.34 1.36 1.34 1.36 1.48 1.58 1.72 1.81 1.82 1.97 2.21 2.44 2.41 2.47 2.49 2.45
1.39 1.58 1.69 1.80 1.77 1.75 1.74 1.75 1.82 1.89 1.91 1.88 1.82 1.73 1.74 1.73 1.65 1.45 1.42 1.39 1.43 1.46 1.48 1.50 1.48 1.41 1.42 1.50 1.50 1.44 1.34 1.31 1.36 1.42 1.53 1.64 1.83 2.08 2.33 2.30 2.30 2.38 2.41
1.49 1.62 1.79 1.89 1.93 1.96 1.98 1.92 1.96 2.04 1.99 1.93 1.89 1.92 1.88 1.90 1.92 1.72 1.68 1.56 1.58 1.61 1.63 1.62 1.60 1.52 1.60 1.52 1.46 1.46 1.41 1.39 1.43 1.48 1.44 1.54 1.75 1.84 1.98 2.05 2.03 2.08 2.02
1.53 1.65 1.82 2.03 2.09 2.14 2.27 2.33 2.25 2.20 2.08 2.10 2.10 2.09 2.09 2.13 2.33 2.10 1.92 1.76 1.79 1.80 1.87 1.84 1.83 1.67 1.64 1.54 1.42 1.45 1.46 1.47 1.52 1.46 1.39 1.38 1.43 1.61 1.77 1.79 1.92 2.04 1.92
1.56 1.69 1.88 2.04 2.13 2.19 2.34 2.43 2.41 2.38 2.36 2.29 2.22 2.24 2.24 2.27 2.41 2.16 1.96 1.85 1.91 2.01 2.00 1.91 1.92 1.86 1.66 1.63 1.55 1.50 1.49 1.46 1.47 1.47 1.43 1.41 1.45 1.54 1.62 1.70 1.89 2.06 2.05
1.47 1.58 1.70 1.86 1.91 2.00 2.23 2.33 2.40 2.44 2.40 2.30 2.24 2.11 2.15 2.15 2.09 1.97 1.87 1.81 1.88 2.00 2.07 1.99 1.94 1.85 1.60 1.50 1.38 1.35 1.34 1.23 1.18 1.29 1.33 1.36 1.37 1.36 1.41 1.59 1.77 1.86 1.90
1.52 1.63 1.76 1.84 1.91 2.03 2.12 2.13 2.20 2.27 2.24 2.15 2.14 2.06 2.03 2.05 2.02 1.79 1.57 1.54 1.58 1.62 1.78 1.87 1.75 1.61 1.40 1.21 1.17 1.12 1.02 0.91 0.95 1.03 1.04 1.04 1.05 1.12 1.25 1.41 1.58 1.66 1.63
1.59 1.63 1.69 1.81 1.84 1.87 1.98 2.07 2.16 2.27 2.35 2.26 2.17 2.06 2.03 1.97 1.83 1.65 1.48 1.41 1.48 1.59 1.67 1.70 1.54 1.41 1.22 1.11 1.03 0.94 0.88 0.91 0.96 0.98 0.99 1.03 1.08 1.15 1.20 1.24 1.34 1.44 1.47
1.47 1.52 1.56 1.58 1.67 1.74 1.79 1.86 1.88 1.97 1.98 1.98 1.93 1.90 1.88 1.82 1.65 1.56 1.43 1.32 1.39 1.51 1.57 1.60 1.48 1.42 1.33 1.23 1.15 1.08 1.06 1.07 1.02 1.00 1.06 1.07 1.08 1.12 1.14 1.16 1.28 1.30 1.25
1.54 1.56 1.48 1.45 1.50 1.54 1.56 1.56 1.55 1.49 1.49 1.45 1.45 1.45 1.44 1.37 1.27 1.16 1.12 1.11 1.16 1.29 1.35 1.49 1.56 1.52 1.47 1.39 1.27 1.17 1.12 1.08 1.03 1.04 1.08 1.09 1.09 1.11 1.17 1.16 1.22 1.25 1.18
1.41 1.45 1.42 1.40 1.46 1.45 1.46 1.48 1.51 1.45 1.35 1.27 1.25 1.22 1.24 1.21 1.16 1.12 1.13 1.17 1.15 1.20 1.24 1.39 1.46 1.41 1.37 1.31 1.20 1.08 1.03 1.05 1.12 1.14 1.15 1.15 1.19 1.21 1.26 1.24 1.21 1.26 1.22
1.22 1.27 1.34 1.42 1.47 1.52 1.55 1.58 1.65 1.72 1.65 1.48 1.32 1.22 1.14 1.09 1.03 1.02 1.06 1.06 1.03 1.05 1.15 1.27 1.29 1.23 1.20 1.17 1.13 1.07 1.05 1.11 1.20 1.19 1.18 1.19 1.21 1.22 1.26 1.27 1.24 1.21 1.20
1.14 1.16 1.18 1.25 1.32 1.38 1.39 1.43 1.51 1.60 1.63 1.54 1.38 1.25 1.12 1.03 0.96 0.93 0.91 0.88 0.94 1.03 1.16 1.19 1.21 1.21 1.13 1.09 1.08 1.03 1.01 1.03 1.12 1.17 1.16 1.18 1.18 1.21 1.21 1.20 1.24 1.24 1.16
1.12 1.12 1.11 1.10 1.10 1.11 1.13 1.19 1.27 1.36 1.41 1.34 1.25 1.13 1.00 0.94 0.83 0.78 0.74 0.74 0.82 0.89 0.98 1.03 1.06 1.03 0.96 0.97 0.99 0.96 0.94 1.00 1.10 1.14 1.11 1.14 1.20 1.20 1.13 1.10 1.12 1.16 1.09
1.10 1.07 1.04 1.01 0.99 0.99 1.02 1.07 1.11 1.15 1.18 1.13 1.04 0.91 0.82 0.74 0.66 0.61 0.62 0.68 0.77 0.87 0.93 0.98 0.97 0.92 0.90 0.93 0.97 0.98 0.95 1.01 1.08 1.09 1.10 1.14 1.19 1.20 1.13 1.09 1.07 1.09 1.10
1.05 0.95 0.89 0.87 0.91 0.95 0.97 1.02 1.07 1.06 1.03 0.96 0.89 0.75 0.69 0.62 0.55 0.52 0.56 0.62 0.68 0.80 0.82 0.83 0.85 0.85 0.82 0.84 0.90 0.96 1.00 1.04 1.12 1.14 1.10 1.12 1.16 1.17 1.18 1.16 1.15 1.12 1.13
1.06 0.94 0.86 0.81 0.81 0.83 0.86 0.92 0.96 0.93 0.85 0.78 0.71 0.67 0.65 0.65 0.55 0.52 0.56 0.64 0.70 0.72 0.69 0.70 0.76 0.80 0.81 0.84 0.86 0.93 0.99 1.04 1.08 1.09 1.14 1.17 1.15 1.13 1.14 1.09 1.09 1.10 1.10
1.03 0.96 0.87 0.77 0.77 0.82 0.85 0.88 0.89 0.86 0.79 0.73 0.68 0.65 0.65 0.68 0.63 0.60 0.64 0.75 0.73 0.67 0.64 0.67 0.71 0.73 0.77 0.83 0.84 0.84 0.89 0.95 0.94 0.95 0.96 1.01 1.03 1.04 1.07 1.05 1.04 1.03 1.05
0.99 0.94 0.84 0.73 0.69 0.72 0.75 0.80 0.84 0.84 0.78 0.70 0.68 0.68 0.72 0.75 0.71 0.69 0.69 0.70 0.66 0.63 0.59 0.63 0.68 0.70 0.73 0.76 0.78 0.79 0.79 0.77 0.77 0.81 0.84 0.89 0.95 1.02 1.08 1.08 1.07 1.05 1.04
0.88 0.82 0.75 0.67 0.60 0.60 0.65 0.73 0.74 0.74 0.71 0.67 0.67 0.68 0.67 0.67 0.64 0.58 0.55 0.55 0.54 0.54 0.55 0.60 0.67 0.68 0.72 0.74 0.67 0.64 0.61 0.57 0.60 0.68 0.71 0.77 0.88 0.97 1.02 1.07 1.05 1.05 1.03

GEFSGL_prec_meanprecacc_234.txt.gz
Total_Precipitation_Accumulation
1.80 1.97 1.95 1.93 2.02 2.05 1.91 1.73 1.67 1.65 1.69 1.77 1.94 2.01 1.99 2.02 2.11 2.14 2.10 2.36 2.45 2.43 2.39 2.38 2.34 2.40 2.39 2.29 2.36 2.50 2.70 2.75 2.45 2.01 1.90 1.88 1.83 1.68 1.61 1.51 1.40 1.35 1.20
1.70 1.89 1.96 1.97 2.01 1.97 1.80 1.65 1.63 1.65 1.73 1.80 1.92 1.93 1.86 1.87 2.04 2.06 2.11 2.32 2.41 2.30 2.25 2.24 2.08 2.12 2.15 2.02 2.12 2.20 2.30 2.50 2.45 2.18 2.14 2.13 2.09 1.95 1.89 1.81 1.63 1.42 1.19
1.59 1.93 2.09 2.09 2.02 1.94 1.76 1.56 1.52 1.58 1.69 1.75 1.76 1.77 1.82 1.93 2.02 2.03 2.02 2.01 2.00 2.05 2.23 2.31 2.14 2.13 2.02 1.96 1.96 1.91 1.98 2.10 2.26 2.20 2.14 2.19 2.13 2.11 2.01 1.82 1.69 1.57 1.27
1.46 1.66 1.78 1.70 1.66 1.67 1.59 1.50 1.46 1.49 1.56 1.64 1.71 1.78 1.85 1.90 1.93 1.98 2.00 1.94 1.91 1.95 2.07 2.12 2.09 2.04 1.94 2.00 1.91 1.87 1.90 2.01 2.13 2.16 2.11 2.23 2.26 2.19 2.18 1.99 1.97 1.84 1.65
1.17 1.29 1.43 1.44 1.42 1.41 1.46 1.52 1.54 1.62 1.62 1.68 1.73 1.75 1.75 1.75 1.65 1.66 1.71 1.72 1.84 1.82 1.73 1.75 1.75 1.78 1.77 1.76 1.63 1.74 1.90 1.98 2.02 2.05 2.06 2.23 2.41 2.45 2.28 2.20 2.26 2.20 2.01
1.05 1.16 1.36 1.49 1.52 1.51 1.55 1.63 1.68 1.68 1.69 1.71 1.68 1.73 1.72 1.48 1.60 1.59 1.56 1.68 1.78 1.77 1.67 1.58 1.50 1.48 1.43 1.41 1.37 1.44 1.66 1.82 1.88 1.96 1.97 2.12 2.35 2.55 2.62 2.57 2.45 2.35 2.29
1.17 1.31 1.50 1.60 1.68 1.70 1.65 1.75 1.72 1.72 1.75 1.72 1.66 1.65 1.68 1.73 1.73 1.55 1.42 1.42 1.54 1.57 1.54 1.53 1.37 1.27 1.40 1.35 1.37 1.35 1.37 1.51 1.60 1.75 1.84 1.86 2.04 2.29 2.51 2.46 2.52 2.54 2.50
1.40 1.59 1.70 1.81 1.78 1.76 1.75 1.77 1.84 1.91 1.92 1.89 1.82 1.74 1.75 1.73 1.65 1.46 1.44 1.39 1.44 1.46 1.49 1.50 1.49 1.42 1.43 1.51 1.51 1.45 1.35 1.32 1.38 1.45 1.56 1.68 1.88 2.13 2.36 2.34 2.35 2.42 2.45
1.50 1.63 1.80 1.90 1.95 1.98 2.00 1.95 1.99 2.06 2.01 1.94 1.90 1.93 1.88 1.91 1.92 1.72 1.69 1.57 1.59 1.61 1.63 1.63 1.61 1.53 1.61 1.54 1.48 1.47 1.43 1.41 1.45 1.50 1.47 1.58 1.79 1.90 2.03 2.09 2.06 2.10 2.03
1.53 1.65 1.83 2.04 2.11 2.15 2.28 2.34 2.27 2.22 2.10 2.12 2.11 2.09 2.10 2.14 2.33 2.11 1.93 1.77 1.80 1.81 1.88 1.86 1.86 1.69 1.67 1.57 1.44 1.47 1.48 1.50 1.55 1.50 1.44 1.42 1.45 1.63 1.79 1.81 1.94 2.06 1.94
1.57 1.70 1.89 2.06 2.14 2.21 2.35 2.44 2.42 2.39 2.37 2.31 2.23 2.25 2.25 2.27 2.41 2.16 1.97 1.85 1.92 2.02 2.01 1.93 1.98 1.93 1.71 1.66 1.59 1.53 1.52 1.50 1.50 1.52 1.49 1.45 1.48 1.56 1.64 1.71 1.91 2.07 2.07
1.48 1.59 1.71 1.87 1.92 2.01 2.24 2.34 2.41 2.44 2.40 2.31 2.24 2.12 2.15 2.15 2.09 1.98 1.87 1.82 1.90 2.02 2.09 2.01 1.97 1.89 1.63 1.52 1.40 1.38 1.38 1.26 1.22 1.34 1.36 1.39 1.40 1.38 1.43 1.60 1.78 1.87 1.91
1.52 1.64 1.76 1.85 1.92 2.03 2.13 2.14 2.20 2.28 2.25 2.16 2.14 2.07 2.04 2.06 2.03 1.79 1.58 1.55 1.58 1.63 1.79 1.89 1.78 1.65 1.43 1.23 1.19 1.15 1.05 0.94 0.98 1.06 1.06 1.06 1.08 1.15 1.27 1.43 1.60 1.67 1.65
1.60 1.63 1.70 1.81 1.85 1.88 1.99 2.08 2.17 2.28 2.36 2.27 2.17 2.07 2.04 1.98 1.85 1.66 1.48 1.41 1.49 1.60 1.68 1.71 1.55 1.44 1.25 1.13 1.05 0.96 0.90 0.94 0.98 1.00 1.02 1.05 1.10 1.17 1.22 1.26 1.36 1.45 1.48
1.49 1.54 1.57 1.59 1.68 1.76 1.80 1.87 1.89 1.98 2.00 1.99 1.95 1.92 1.89 1.83 1.66 1.57 1.44 1.33 1.40 1.52 1.58 1.60 1.48 1.43 1.35 1.25 1.17 1.11 1.10 1.11 1.06 1.03 1.08 1.09 1.09 1.13 1.15 1.17 1.29 1.31 1.27
1.56 1.57 1.50 1.46 1.51 1.55 1.58 1.56 1.56 1.50 1.50 1.47 1.46 1.46 1.44 1.38 1.28 1.16 1.14 1.12 1.16 1.30 1.35 1.50 1.56 1.52 1.48 1.40 1.29 1.18 1.14 1.11 1.06 1.06 1.09 1.10 1.10 1.12 1.18 1.17 1.23 1.26 1.19
1.44 1.47 1.44 1.41 1.47 1.46 1.47 1.49 1.53 1.47 1.36 1.29 1.26 1.23 1.25 1.23 1.17 1.13 1.15 1.18 1.15 1.21 1.25 1.40 1.46 1.41 1.37 1.32 1.21 1.09 1.04 1.06 1.13 1.14 1.16 1.15 1.19 1.22 1.27 1.25 1.22 1.27 1.23
1.25 1.31 1.37 1.45 1.49 1.54 1.57 1.60 1.67 1.73 1.67 1.50 1.34 1.24 1.16 1.11 1.05 1.04 1.08 1.07 1.04 1.06 1.15 1.27 1.29 1.23 1.20 1.17 1.14 1.08 1.05 1.11 1.20 1.19 1.18 1.19 1.21 1.23 1.26 1.28 1.24 1.22 1.21
1.17 1.19 1.20 1.27 1.34 1.40 1.41 1.45 1.52 1.61 1.64 1.54 1.39 1.27 1.14 1.06 0.97 0.95 0.93 0.89 0.94 1.04 1.17 1.20 1.21 1.21 1.13 1.09 1.09 1.04 1.02 1.04 1.13 1.18 1.16 1.18 1.19 1.21 1.22 1.20 1.24 1.25 1.17
1.14 1.15 1.13 1.12 1.13 1.14 1.16 1.22 1.29 1.38 1.43 1.36 1.26 1.15 1.02 0.96 0.84 0.79 0.75 0.75 0.83 0.90 0.98 1.04 1.07 1.04 0.97 0.98 0.99 0.97 0.94 1.00 1.11 1.14 1.12 1.15 1.20 1.21 1.13 1.11 1.13 1.17 1.10
1.12 1.09 1.07 1.04 1.02 1.02 1.04 1.10 1.14 1.17 1.21 1.15 1.06 0.93 0.83 0.75 0.67 0.63 0.63 0.69 0.79 0.87 0.94 0.98 0.97 0.92 0.90 0.93 0.97 0.98 0.96 1.01 1.08 1.10 1.11 1.15 1.20 1.20 1.13 1.10 1.08 1.10 1.11
1.08 0.98 0.91 0.90 0.94 0.98 0.99 1.04 1.09 1.09 1.05 0.99 0.91 0.76 0.71 0.63 0.56 0.54 0.57 0.63 0.69 0.81 0.83 0.84 0.86 0.86 0.83 0.84 0.90 0.97 1.01 1.05 1.13 1.14 1.11 1.13 1.17 1.18 1.19 1.16 1.16 1.13 1.14
1.10 0.97 0.89 0.84 0.84 0.86 0.88 0.94 0.98 0.95 0.87 0.80 0.74 0.70 0.67 0.67 0.57 0.53 0.58 0.66 0.72 0.73 0.70 0.72 0.77 0.81 0.82 0.85 0.87 0.94 1.00 1.05 1.09 1.10 1.15 1.18 1.16 1.14 1.15 1.10 1.10 1.11 1.11
1.09 1.00 0.90 0.80 0.81 0.85 0.88 0.91 0.91 0.88 0.81 0.74 0.71 0.68 0.67 0.70 0.64 0.62 0.66 0.76 0.75 0.68 0.65 0.68 0.72 0.74 0.79 0.85 0.85 0.85 0.90 0.96 0.96 0.96 0.97 1.02 1.04 1.05 1.08 1.06 1.06 1.05 1.07
1.04 0.98 0.88 0.77 0.73 0.76 0.79 0.84 0.87 0.86 0.80 0.72 0.70 0.70 0.73 0.76 0.73 0.70 0.70 0.71 0.68 0.64 0.60 0.64 0.70 0.72 0.74 0.77 0.79 0.80 0.81 0.79 0.79 0.83 0.86 0.91 0.96 1.04 1.10 1.10 1.10 1.08 1.08
0.91 0.85 0.78 0.70 0.63 0.63 0.69 0.76 0.77 0.76 0.73 0.69 0.68 0.69 0.68 0.68 0.66 0.60 0.57 0.56 0.55 0.55 0.56 0.61 0.67 0.69 0.73 0.74 0.67 0.65 0.63 0.58 0.62 0.70 0.72 0.79 0.90 0.99 1.04 1.09 1.08 1.09 1.07

GEFSGL_prec_meanprecacc_240.txt.gz
Total_Precipitation_Accumulation
1.81 1.98 1.96 1.95 2.05 2.11 1.96 1.76 1.70 1.66 1.70 1.78 1.96 2.03 2.00 2.04 2.14 2.19 2.16 2.43 2.52 2.50 2.47 2.45 2.42 2.49 2.48 2.39 2.46 2.61 2.82 2.87 2.56 2.11 2.01 1.97 1.92 1.79 1.72 1.59 1.46 1.39 1.22
1.70 1.90 1.97 1.98 2.02 2.00 1.84 1.68 1.65 1.66 1.73 1.81 1.93 1.94 1.87 1.88 2.07 2.11 2.18 2.39 2.48 2.38 2.35 2.35 2.17 2.20 2.24 2.11 2.21 2.28 2.39 2.58 2.54 2.26 2.23 2.21 2.16 2.02 1.95 1.86 1.67 1.45 1.21
1.60 1.93 2.09 2.09 2.03 1.95 1.77 1.57 1.53 1.58 1.70 1.75 1.76 1.78 1.83 1.93 2.03 2.05 2.06 2.06 2.06 2.12 2.30 2.39 2.21 2.20 2.08 2.02 2.03 1.98 2.04 2.16 2.34 2.28 2.22 2.26 2.20 2.18 2.08 1.86 1.73 1.60 1.30
1.47 1.67 1.79 1.70 1.66 1.67 1.60 1.51 1.46 1.50 1.57 1.64 1.71 1.79 1.85 1.91 1.94 2.00 2.03 1.97 1.95 2.00 2.12 2.17 2.14 2.08 2.00 2.05 1.95 1.91 1.95 2.07 2.20 2.23 2.18 2.29 2.31 2.23 2.22 2.03 2.02 1.89 1.72
1.17 1.30 1.44 1.44 1.42 1.41 1.47 1.52 1.54 1.63 1.63 1.69 1.74 1.76 1.76 1.76 1.66 1.68 1.73 1.75 1.88 1.86 1.78 1.80 1.80 1.83 1.81 1.81 1.66 1.77 1.94 2.03 2.09 2.12 2.12 2.27 2.44 2.48 2.31 2.24 2.29 2.24 2.07
1.05 1.16 1.37 1.49 1.52 1.52 1.55 1.64 1.68 1.69 1.69 1.72 1.68 1.73 1.73 1.48 1.60 1.59 1.57 1.70 1.81 1.81 1.71 1.62 1.54 1.51 1.45 1.43 1.39 1.45 1.68 1.85 1.93 2.01 2.01 2.15 2.38 2.58 2.66 2.61 2.49 2.40 2.34
1.18 1.32 1.51 1.61 1.69 1.70 1.66 1.75 1.72 1.72 1.76 1.73 1.67 1.66 1.69 1.74 1.74 1.56 1.42 1.43 1.56 1.60 1.57 1.56 1.40 1.31 1.42 1.37 1.40 1.37 1.39 1.52 1.63 1.79 1.88 1.89 2.07 2.32 2.54 2.51 2.59 2.61 2.54
1.43 1.61 1.72 1.83 1.79 1.77 1.76 1.78 1.85 1.92 1.94 1.90 1.84 1.75 1.77 1.75 1.68 1.47 1.45 1.41 1.45 1.47 1.51 1.53 1.53 1.45 1.46 1.56 1.55 1.49 1.38 1.34 1.40 1.48 1.59 1.71 1.91 2.17 2.42 2.40 2.42 2.48 2.49
1.53 1.66 1.82 1.92 1.97 1.99 2.01 1.96 2.00 2.07 2.02 1.95 1.91 1.95 1.90 1.92 1.95 1.74 1.71 1.58 1.61 1.63 1.64 1.66 1.65 1.56 1.65 1.58 1.52 1.51 1.46 1.44 1.48 1.54 1.51 1.62 1.84 1.95 2.08 2.15 2.12 2.16 2.07
1.56 1.68 1.86 2.08 2.14 2.17 2.29 2.34 2.27 2.23 2.11 2.13 2.13 2.11 2.11 2.15 2.36 2.14 1.94 1.79 1.83 1.83 1.91 1.90 1.91 1.73 1.70 1.60 1.48 1.50 1.50 1.52 1.57 1.53 1.48 1.46 1.49 1.67 1.84 1.85 1.99 2.11 1.97
1.59 1.72 1.92 2.09 2.17 2.23 2.37 2.44 2.43 2.40 2.38 2.31 2.24 2.26 2.26 2.28 2.44 2.19 1.98 1.87 1.94 2.06 2.05 1.96 2.00 1.95 1.73 1.70 1.62 1.56 1.55 1.53 1.53 1.54 1.51 1.48 1.51 1.60 1.68 1.75 1.94 2.11 2.10
1.52 1.63 1.75 1.91 1.95 2.03 2.26 2.36 2.43 2.46 2.41 2.32 2.26 2.14 2.18 2.17 2.11 2.00 1.89 1.83 1.91 2.04 2.12 2.03 1.98 1.91 1.65 1.54 1.41 1.39 1.39 1.28 1.24 1.36 1.39 1.41 1.42 1.41 1.46 1.63 1.81 1.90 1.95
1.56 1.68 1.81 1.89 1.96 2.07 2.16 2.16 2.22 2.30 2.27 2.17 2.16 2.09 2.06 2.08 2.05 1.80 1.58 1.55 1.59 1.64 1.81 1.90 1.79 1.66 1.43 1.24 1.19 1.16 1.06 0.95 1.00 1.08 1.09 1.09 1.11 1.17 1.30 1.46 1.63 1.71 1.68
1.64 1.68 1.75 1.87 1.90 1.92 2.03 2.11 2.21 2.31 2.39 2.30 2.19 2.09 2.06 2.00 1.87 1.68 1.48 1.41 1.50 1.60 1.69 1.71 1.56 1.44 1.25 1.13 1.05 0.96 0.91 0.95 0.99 1.02 1.04 1.08 1.13 1.20 1.25 1.30 1.39 1.49 1.52
1.54 1.58 1.62 1.64 1.73 1.81 1.85 1.93 1.94 2.03 2.03 2.02 1.98 1.94 1.91 1.85 1.68 1.59 1.45 1.34 1.41 1.53 1.59 1.61 1.49 1.44 1.35 1.25 1.17 1.12 1.10 1.12 1.07 1.05 1.10 1.11 1.13 1.18 1.20 1.22 1.33 1.33 1.28
1.60 1.62 1.54 1.50 1.56 1.60 1.63 1.62 1.62 1.55 1.54 1.49 1.48 1.47 1.46 1.40 1.29 1.17 1.14 1.13 1.17 1.31 1.36 1.51 1.58 1.54 1.49 1.42 1.30 1.20 1.15 1.11 1.06 1.07 1.11 1.12 1.11 1.13 1.19 1.19 1.24 1.27 1.20
1.49 1.54 1.52 1.48 1.53 1.52 1.53 1.55 1.59 1.52 1.41 1.33 1.28 1.25 1.26 1.24 1.18 1.14 1.15 1.18 1.16 1.21 1.25 1.40 1.48 1.43 1.40 1.35 1.24 1.12 1.07 1.08 1.15 1.16 1.17 1.16 1.21 1.23 1.28 1.26 1.23 1.28 1.24
1.28 1.35 1.45 1.55 1.58 1.61 1.64 1.67 1.73 1.78 1.72 1.54 1.37 1.26 1.18 1.12 1.05 1.05 1.08 1.07 1.04 1.06 1.16 1.28 1.31 1.25 1.22 1.19 1.15 1.09 1.07 1.14 1.23 1.21 1.20 1.21 1.23 1.24 1.27 1.29 1.26 1.23 1.22
1.22 1.25 1.26 1.31 1.40 1.47 1.48 1.52 1.59 1.67 1.70 1.59 1.42 1.30 1.16 1.07 0.98 0.95 0.93 0.90 0.95 1.05 1.18 1.22 1.24 1.23 1.15 1.11 1.10 1.05 1.02 1.05 1.14 1.20 1.18 1.20 1.21 1.23 1.23 1.21 1.26 1.26 1.18
1.18 1.20 1.19 1.17 1.17 1.19 1.22 1.29 1.38 1.47 1.51 1.42 1.31 1.18 1.04 0.97 0.85 0.80 0.76 0.76 0.84 0.91 1.00 1.07 1.10 1.06 0.98 0.99 1.00 0.98 0.95 1.01 1.12 1.15 1.12 1.16 1.22 1.22 1.15 1.13 1.14 1.18 1.11
1.16 1.13 1.11 1.09 1.08 1.08 1.11 1.17 1.22 1.26 1.28 1.21 1.12 0.96 0.85 0.76 0.68 0.64 0.64 0.70 0.79 0.88 0.95 1.00 1.00 0.94 0.92 0.95 0.99 1.00 0.97 1.02 1.09 1.10 1.11 1.16 1.21 1.21 1.14 1.11 1.09 1.11 1.12
1.12 1.00 0.94 0.94 0.98 1.02 1.03 1.08 1.13 1.13 1.09 1.03 0.95 0.80 0.73 0.65 0.57 0.55 0.58 0.65 0.71 0.82 0.85 0.85 0.88 0.87 0.85 0.86 0.93 0.99 1.02 1.06 1.14 1.16 1.13 1.14 1.18 1.19 1.20 1.17 1.16 1.14 1.15
1.15 1.01 0.92 0.88 0.87 0.90 0.92 0.98 1.02 0.99 0.91 0.84 0.78 0.73 0.70 0.69 0.58 0.55 0.60 0.68 0.74 0.75 0.72 0.73 0.78 0.82 0.84 0.87 0.88 0.96 1.02 1.07 1.11 1.12 1.17 1.20 1.19 1.16 1.17 1.12 1.12 1.13 1.13
1.18 1.10 0.97 0.85 0.86 0.89 0.91 0.94 0.94 0.91 0.85 0.79 0.75 0.72 0.72 0.73 0.67 0.64 0.68 0.78 0.77 0.70 0.67 0.70 0.74 0.76 0.80 0.86 0.85 0.86 0.90 0.97 0.96 0.97 0.99 1.04 1.06 1.08 1.10 1.09 1.09 1.08 1.10
1.13 1.10 1.01 0.88 0.82 0.82 0.83 0.87 0.90 0.89 0.84 0.76 0.73 0.73 0.76 0.79 0.76 0.73 0.73 0.73 0.70 0.66 0.62 0.67 0.72 0.73 0.76 0.78 0.80 0.81 0.82 0.79 0.79 0.83 0.86 0.91 0.97 1.06 1.12 1.12 1.12 1.11 1.11
0.97 0.91 0.85 0.76 0.69 0.68 0.73 0.79 0.80 0.80 0.77 0.72 0.70 0.72 0.71 0.71 0.69 0.63 0.60 0.59 0.58 0.58 0.59 0.64 0.71 0.72 0.75 0.76 0.69 0.67 0.64 0.60 0.63 0.71 0.73 0.79 0.91 1.00 1.05 1.10 1.09 1.11 1.09

GEFSGL_prec_meanprecacc_246.txt.gz
Total_Precipitation_Accumulation
1.81 1.99 1.97 1.96 2.06 2.12 1.99 1.77 1.70 1.67 1.71 1.78 1.97 2.04 2.01 2.04 2.15 2.20 2.18 2.46 2.56 2.54 2.50 2.48 2.44 2.51 2.51 2.41 2.49 2.65 2.87 2.92 2.61 2.16 2.06 2.02 1.97 1.85 1.79 1.66 1.52 1.43 1.26
1.70 1.90 1.98 1.98 2.02 2.01 1.88 1.70 1.66 1.67 1.74 1.82 1.94 1.95 1.87 1.88 2.07 2.12 2.19 2.42 2.51 2.41 2.38 2.37 2.19 2.23 2.27 2.14 2.24 2.32 2.43 2.63 2.59 2.32 2.28 2.25 2.19 2.06 1.99 1.90 1.71 1.48 1.24
1.60 1.94 2.10 2.10 2.04 1.96 1.79 1.58 1.54 1.59 1.70 1.76 1.77 1.79 1.83 1.94 2.03 2.05 2.06 2.07 2.07 2.14 2.33 2.42 2.24 2.23 2.11 2.06 2.08 2.04 2.09 2.20 2.38 2.32 2.26 2.30 2.23 2.21 2.12 1.93 1.79 1.65 1.35
1.50 1.70 1.80 1.72 1.67 1.68 1.60 1.51 1.47 1.51 1.58 1.65 1.72 1.80 1.86 1.91 1.94 2.00 2.04 1.99 1.97 2.02 2.14 2.18 2.15 2.11 2.03 2.09 2.00 1.96 1.99 2.11 2.24 2.28 2.23 2.35 2.35 2.27 2.25 2.07 2.08 1.95 1.77
1.19 1.31 1.45 1.46 1.44 1.43 1.48 1.52 1.55 1.64 1.64 1.70 1.76 1.78 1.77 1.77 1.67 1.68 1.74 1.77 1.91 1.88 1.79 1.81 1.81 1.85 1.84 1.85 1.71 1.82 1.99 2.07 2.12 2.16 2.16 2.31 2.48 2.52 2.34 2.26 2.32 2.29 2.13
1.06 1.17 1.37 1.51 1.54 1.54 1.57 1.65 1.70 1.70 1.70 1.74 1.70 1.75 1.74 1.49 1.62 1.61 1.60 1.74 1.83 1.82 1.72 1.62 1.55 1.54 1.48 1.47 1.44 1.51 1.73 1.90 1.98 2.07 2.08 2.21 2.42 2.62 2.68 2.63 2.51 2.44 2.41
1.20 1.33 1.51 1.62 1.71 1.72 1.68 1.78 1.74 1.74 1.79 1.75 1.68 1.67 1.71 1.75 1.76 1.59 1.46 1.46 1.58 1.61 1.58 1.56 1.41 1.32 1.45 1.41 1.44 1.42 1.43 1.56 1.68 1.85 1.95 1.94 2.10 2.35 2.58 2.54 2.62 2.64 2.60
1.45 1.63 1.73 1.84 1.81 1.78 1.78 1.80 1.86 1.93 1.96 1.92 1.85 1.77 1.78 1.76 1.70 1.49 1.48 1.43 1.46 1.49 1.52 1.55 1.55 1.47 1.49 1.58 1.56 1.50 1.39 1.36 1.43 1.51 1.63 1.75 1.94 2.20 2.44 2.43 2.44 2.51 2.54
1.54 1.67 1.85 1.95 1.98 2.00 2.02 1.97 2.02 2.09 2.04 1.96 1.92 1.96 1.91 1.93 1.97 1.76 1.73 1.60 1.62 1.64 1.67 1.68 1.66 1.58 1.67 1.60 1.53 1.52 1.46 1.44 1.49 1.56 1.53 1.65 1.87 1.98 2.10 2.17 2.14 2.18 2.11
1.58 1.70 1.88 2.10 2.16 2.18 2.31 2.37 2.30 2.25 2.12 2.13 2.13 2.11 2.13 2.17 2.37 2.16 1.96 1.80 1.84 1.85 1.93 1.91 1.92 1.74 1.71 1.61 1.49 1.51 1.51 1.52 1.58 1.54 1.50 1.47 1.51 1.69 1.86 1.87 2.00 2.13 2.01
1.62 1.75 1.95 2.13 2.22 2.28 2.42 2.49 2.45 2.41 2.39 2.33 2.26 2.29 2.28 2.30 2.46 2.21 2.01 1.89 1.96 2.08 2.07 1.97 2.01 1.96 1.74 1.70 1.63 1.58 1.56 1.54 1.54 1.54 1.51 1.48 1.51 1.61 1.69 1.78 1.97 2.14 2.13
1.55 1.66 1.79 1.96 2.00 2.09 2.33 2.40 2.47 2.49 2.45 2.36 2.30 2.17 2.20 2.20 2.15 2.04 1.93 1.87 1.94 2.06 2.12 2.03 1.99 1.91 1.65 1.55 1.42 1.40 1.40 1.29 1.25 1.37 1.39 1.41 1.43 1.43 1.48 1.67 1.87 1.94 1.97
1.59 1.72 1.86 1.94 2.01 2.13 2.21 2.22 2.29 2.36 2.32 2.22 2.20 2.13 2.09 2.11 2.09 1.84 1.62 1.59 1.62 1.65 1.81 1.90 1.79 1.67 1.44 1.24 1.20 1.16 1.07 0.96 1.00 1.10 1.12 1.13 1.14 1.19 1.32 1.49 1.67 1.74 1.70
1.67 1.72 1.80 1.91 1.93 1.97 2.09 2.17 2.27 2.38 2.45 2.34 2.23 2.13 2.11 2.05 1.92 1.72 1.52 1.44 1.52 1.61 1.69 1.72 1.56 1.45 1.26 1.13 1.06 0.97 0.91 0.95 1.00 1.02 1.05 1.12 1.18 1.23 1.26 1.31 1.40 1.50 1.54
1.57 1.61 1.66 1.69 1.77 1.85 1.89 1.97 1.99 2.10 2.11 2.09 2.03 2.01 1.99 1.93 1.74 1.64 1.49 1.37 1.44 1.56 1.62 1.63 1.51 1.45 1.36 1.26 1.18 1.13 1.11 1.12 1.07 1.05 1.10 1.12 1.14 1.19 1.21 1.23 1.33 1.33 1.29
1.63 1.65 1.58 1.54 1.60 1.65 1.68 1.67 1.67 1.63 1.63 1.59 1.60 1.58 1.53 1.46 1.33 1.20 1.17 1.16 1.20 1.33 1.38 1.52 1.59 1.55 1.50 1.42 1.30 1.20 1.16 1.13 1.07 1.08 1.11 1.12 1.12 1.14 1.20 1.19 1.25 1.28 1.21
1.52 1.58 1.56 1.54 1.58 1.57 1.57 1.59 1.62 1.57 1.48 1.42 1.38 1.35 1.36 1.30 1.22 1.17 1.18 1.21 1.18 1.22 1.26 1.41 1.48 1.44 1.41 1.35 1.24 1.12 1.08 1.10 1.17 1.17 1.19 1.18 1.22 1.24 1.29 1.27 1.24 1.29 1.25
1.31 1.39 1.50 1.60 1.63 1.65 1.67 1.71 1.76 1.81 1.75 1.57 1.41 1.31 1.24 1.19 1.12 1.12 1.14 1.12 1.08 1.09 1.17 1.29 1.31 1.26 1.22 1.19 1.16 1.10 1.08 1.15 1.26 1.24 1.22 1.23 1.24 1.25 1.28 1.30 1.26 1.24 1.23
1.25 1.29 1.30 1.36 1.45 1.52 1.52 1.55 1.62 1.70 1.72 1.61 1.45 1.33 1.21 1.14 1.06 1.02 0.98 0.93 0.97 1.06 1.20 1.23 1.24 1.24 1.16 1.12 1.11 1.06 1.04 1.06 1.16 1.22 1.21 1.23 1.23 1.25 1.24 1.22 1.26 1.27 1.18
1.23 1.25 1.25 1.23 1.22 1.25 1.28 1.34 1.41 1.50 1.54 1.45 1.34 1.22 1.09 1.02 0.91 0.85 0.80 0.79 0.86 0.93 1.02 1.09 1.12 1.08 1.00 1.00 1.02 1.00 0.97 1.03 1.13 1.17 1.14 1.17 1.23 1.23 1.16 1.14 1.15 1.19 1.12
1.22 1.20 1.17 1.15 1.15 1.16 1.18 1.23 1.26 1.29 1.32 1.26 1.16 1.01 0.92 0.84 0.76 0.70 0.70 0.74 0.82 0.91 0.99 1.04 1.03 0.97 0.95 0.97 1.01 1.01 0.98 1.03 1.11 1.12 1.13 1.17 1.22 1.22 1.15 1.11 1.10 1.12 1.13
1.20 1.08 1.02 1.01 1.06 1.10 1.11 1.15 1.20 1.19 1.16 1.10 1.01 0.84 0.78 0.71 0.64 0.62 0.65 0.70 0.76 0.87 0.89 0.90 0.92 0.91 0.88 0.90 0.95 1.00 1.04 1.08 1.15 1.17 1.14 1.15 1.19 1.20 1.21 1.18 1.18 1.15 1.16
1.27 1.12 1.01 0.97 0.98 0.99 1.00 1.06 1.11 1.07 1.00 0.94 0.87 0.82 0.77 0.74 0.64 0.60 0.64 0.72 0.78 0.79 0.76 0.77 0.82 0.85 0.86 0.90 0.91 0.97 1.03 1.08 1.13 1.13 1.18 1.21 1.19 1.17 1.18 1.13 1.13 1.15 1.15
1.29 1.19 1.06 0.94 0.96 1.01 1.01 1.04 1.06 1.02 0.94 0.89 0.85 0.81 0.79 0.78 0.71 0.68 0.72 0.81 0.80 0.72 0.70 0.73 0.77 0.79 0.84 0.90 0.89 0.89 0.93 1.00 0.99 0.99 1.01 1.06 1.09 1.10 1.13 1.11 1.11 1.09 1.12
1.23 1.19 1.09 0.97 0.94 0.95 0.95 0.97 0.99 0.96 0.91 0.85 0.82 0.81 0.83 0.86 0.80 0.77 0.76 0.76 0.73 0.69 0.65 0.69 0.74 0.76 0.78 0.82 0.85 0.86 0.87 0.84 0.84 0.88 0.91 0.96 1.02 1.10 1.15 1.15 1.15 1.14 1.14
1.05 1.00 0.92 0.85 0.78 0.78 0.84 0.90 0.90 0.89 0.87 0.84 0.81 0.81 0.77 0.76 0.72 0.66 0.62 0.61 0.61 0.60 0.62 0.67 0.73 0.75 0.80 0.81 0.74 0.73 0.70 0.65 0.68 0.75 0.76 0.81 0.93 1.02 1.07 1.13 1.13 1.15 1.13

GEFSGL_prec_meanprecacc_252.txt.gz
Total_Precipitation_Accumulation
1.81 1.99 1.98 1.97 2.07 2.14 2.01 1.79 1.71 1.68 1.72 1.80 2.00 2.07 2.02 2.06 2.16 2.21 2.19 2.48 2.58 2.56 2.52 2.51 2.47 2.55 2.55 2.47 2.56 2.72 2.96 3.00 2.67 2.21 2.10 2.07 2.03 1.91 1.85 1.70 1.57 1.48 1.30
1.71 1.90 1.98 1.99 2.03 2.03 1.90 1.72 1.66 1.67 1.75 1.83 1.96 1.97 1.89 1.90 2.08 2.12 2.19 2.44 2.55 2.45 2.42 2.41 2.23 2.26 2.30 2.18 2.28 2.36 2.49 2.69 2.65 2.38 2.35 2.32 2.26 2.11 2.04 1.96 1.76 1.51 1.27
1.61 1.95 2.11 2.11 2.04 1.97 1.80 1.59 1.54 1.59 1.71 1.77 1.78 1.80 1.85 1.95 2.04 2.06 2.07 2.09 2.11 2.18 2.36 2.45 2.27 2.26 2.13 2.10 2.12 2.08 2.14 2.27 2.45 2.39 2.33 2.36 2.29 2.26 2.16 1.96 1.82 1.67 1.37
1.51 1.71 1.81 1.72 1.68 1.68 1.61 1.51 1.47 1.51 1.59 1.67 1.74 1.82 1.87 1.92 1.95 2.02 2.06 2.01 1.99 2.04 2.16 2.21 2.18 2.14 2.06 2.13 2.03 1.99 2.04 2.17 2.29 2.31 2.26 2.38 2.39 2.31 2.28 2.10 2.09 1.96 1.79
1.20 1.32 1.46 1.46 1.44 1.43 1.48 1.53 1.56 1.65 1.65 1.71 1.77 1.79 1.79 1.78 1.68 1.70 1.77 1.79 1.93 1.89 1.81 1.82 1.82 1.86 1.86 1.87 1.74 1.85 2.02 2.11 2.15 2.18 2.19 2.35 2.53 2.56 2.36 2.27 2.34 2.31 2.14
1.07 1.18 1.38 1.51 1.54 1.54 1.58 1.66 1.71 1.71 1.72 1.75 1.72 1.76 1.75 1.50 1.63 1.62 1.62 1.75 1.85 1.83 1.73 1.63 1.56 1.55 1.49 1.49 1.47 1.54 1.76 1.93 2.00 2.09 2.11 2.25 2.46 2.65 2.71 2.64 2.52 2.44 2.43
1.21 1.35 1.52 1.62 1.71 1.72 1.68 1.78 1.75 1.76 1.80 1.77 1.70 1.68 1.72 1.76 1.77 1.60 1.46 1.47 1.59 1.62 1.59 1.57 1.42 1.33 1.46 1.42 1.45 1.44 1.46 1.59 1.71 1.87 1.96 1.96 2.12 2.37 2.59 2.55 2.63 2.66 2.62
1.46 1.64 1.74 1.84 1.81 1.79 1.78 1.81 1.88 1.95 1.97 1.93 1.87 1.79 1.79 1.78 1.72 1.50 1.48 1.43 1.47 1.50 1.53 1.56 1.56 1.48 1.50 1.60 1.58 1.51 1.40 1.37 1.45 1.52 1.63 1.75 1.95 2.21 2.45 2.44 2.46 2.53 2.57
1.55 1.68 1.85 1.95 1.99 2.01 2.03 1.98 2.03 2.11 2.06 1.98 1.94 1.98 1.93 1.95 1.98 1.77 1.74 1.60 1.63 1.65 1.69 1.69 1.68 1.59 1.68 1.61 1.55 1.53 1.47 1.44 1.50 1.57 1.54 1.65 1.88 1.99 2.11 2.17 2.16 2.21 2.15
1.59 1.71 1.89 2.11 2.17 2.20 2.34 2.41 2.33 2.28 2.14 2.14 2.14 2.13 2.15 2.18 2.38 2.16 1.96 1.81 1.84 1.86 1.94 1.93 1.94 1.76 1.73 1.63 1.50 1.52 1.51 1.52 1.58 1.54 1.50 1.48 1.52 1.70 1.87 1.88 2.02 2.16 2.03
1.63 1.76 1.95 2.14 2.24 2.31 2.47 2.53 2.49 2.44 2.40 2.34 2.27 2.30 2.29 2.31 2.46 2.22 2.02 1.90 1.97 2.10 2.09 1.98 2.02 1.97 1.76 1.72 1.64 1.58 1.57 1.55 1.54 1.55 1.52 1.50 1.53 1.61 1.70 1.79 1.99 2.15 2.15
1.55 1.67 1.80 1.97 2.02 2.11 2.36 2.44 2.50 2.52 2.47 2.38 2.31 2.19 2.21 2.21 2.16 2.05 1.95 1.90 1.98 2.09 2.15 2.05 2.00 1.93 1.67 1.56 1.43 1.42 1.42 1.31 1.28 1.39 1.41 1.43 1.45 1.45 1.49 1.68 1.89 1.98 2.00
1.60 1.73 1.87 1.95 2.02 2.14 2.23 2.25 2.32 2.40 2.36 2.25 2.22 2.15 2.12 2.14 2.12 1.88 1.66 1.64 1.66 1.70 1.84 1.93 1.83 1.70 1.47 1.27 1.22 1.19 1.09 0.97 1.01 1.11 1.13 1.14 1.15 1.20 1.33 1.50 1.69 1.79 1.77
1.68 1.73 1.81 1.93 1.94 1.98 2.11 2.20 2.30 2.41 2.48 2.37 2.26 2.17 2.14 2.08 1.96 1.76 1.56 1.47 1.56 1.65 1.73 1.76 1.62 1.51 1.32 1.19 1.11 1.01 0.94 0.98 1.01 1.03 1.06 1.13 1.19 1.24 1.28 1.33 1.43 1.53 1.56
1.57 1.62 1.67 1.70 1.78 1.87 1.92 2.00 2.02 2.12 2.13 2.11 2.06 2.04 2.02 1.96 1.79 1.68 1.54 1.42 1.49 1.61 1.67 1.70 1.58 1.54 1.46 1.33 1.24 1.17 1.14 1.14 1.09 1.06 1.11 1.12 1.14 1.21 1.22 1.24 1.35 1.35 1.29
1.64 1.66 1.59 1.55 1.61 1.66 1.70 1.69 1.70 1.65 1.66 1.62 1.63 1.63 1.59 1.52 1.38 1.24 1.21 1.21 1.25 1.37 1.43 1.56 1.64 1.60 1.55 1.46 1.33 1.22 1.17 1.13 1.08 1.09 1.12 1.13 1.12 1.14 1.21 1.20 1.26 1.28 1.21
1.53 1.59 1.58 1.55 1.59 1.58 1.58 1.61 1.64 1.59 1.50 1.44 1.41 1.40 1.44 1.39 1.31 1.27 1.25 1.26 1.21 1.25 1.28 1.43 1.50 1.46 1.43 1.38 1.26 1.14 1.09 1.11 1.18 1.19 1.20 1.18 1.23 1.25 1.30 1.28 1.25 1.30 1.25
1.32 1.40 1.51 1.61 1.64 1.67 1.69 1.73 1.79 1.84 1.77 1.59 1.44 1.35 1.28 1.24 1.18 1.19 1.21 1.17 1.11 1.12 1.20 1.32 1.33 1.28 1.25 1.21 1.18 1.12 1.11 1.18 1.29 1.27 1.24 1.25 1.26 1.27 1.30 1.31 1.28 1.25 1.24
1.25 1.29 1.32 1.38 1.46 1.54 1.55 1.58 1.66 1.74 1.76 1.64 1.48 1.36 1.26 1.18 1.11 1.06 1.02 0.96 1.00 1.09 1.21 1.25 1.26 1.26 1.18 1.13 1.13 1.08 1.06 1.08 1.19 1.25 1.23 1.25 1.26 1.28 1.27 1.24 1.28 1.28 1.20
1.24 1.27 1.27 1.24 1.25 1.28 1.32 1.39 1.47 1.55 1.60 1.52 1.40 1.27 1.15 1.07 0.94 0.89 0.84 0.82 0.89 0.96 1.04 1.11 1.14 1.11 1.03 1.04 1.05 1.02 0.99 1.05 1.16 1.20 1.17 1.19 1.24 1.24 1.17 1.15 1.16 1.20 1.13
1.25 1.23 1.21 1.19 1.21 1.22 1.27 1.32 1.35 1.38 1.42 1.35 1.23 1.08 0.98 0.88 0.79 0.74 0.73 0.78 0.87 0.95 1.02 1.07 1.07 1.03 1.02 1.05 1.07 1.06 1.02 1.07 1.14 1.16 1.16 1.19 1.24 1.24 1.17 1.13 1.11 1.13 1.15
1.24 1.13 1.08 1.08 1.15 1.20 1.22 1.29 1.32 1.29 1.24 1.17 1.07 0.91 0.86 0.77 0.70 0.68 0.70 0.76 0.83 0.94 0.95 0.96 1.00 0.99 0.96 0.97 1.02 1.06 1.08 1.12 1.19 1.20 1.16 1.18 1.22 1.23 1.24 1.20 1.20 1.17 1.18
1.32 1.16 1.05 1.03 1.05 1.05 1.07 1.14 1.19 1.15 1.07 1.01 0.94 0.89 0.85 0.81 0.71 0.68 0.73 0.80 0.86 0.87 0.84 0.85 0.90 0.93 0.94 0.96 0.97 1.03 1.08 1.12 1.17 1.18 1.23 1.25 1.23 1.21 1.21 1.16 1.15 1.17 1.17
1.33 1.23 1.09 0.98 1.00 1.05 1.06 1.10 1.12 1.10 1.02 0.95 0.92 0.88 0.86 0.86 0.80 0.77 0.80 0.89 0.87 0.79 0.76 0.78 0.82 0.84 0.88 0.94 0.93 0.94 0.98 1.05 1.04 1.04 1.06 1.10 1.12 1.13 1.16 1.14 1.14 1.13 1.15
1.28 1.22 1.11 1.00 0.97 0.98 1.00 1.03 1.05 1.04 0.99 0.91 0.89 0.88 0.90 0.94 0.87 0.82 0.81 0.81 0.77 0.73 0.69 0.73 0.77 0.78 0.82 0.86 0.89 0.90 0.91 0.88 0.87 0.91 0.93 0.98 1.04 1.11 1.17 1.17 1.17 1.16 1.17
1.10 1.04 0.95 0.88 0.82 0.83 0.90 0.97 0.98 0.98 0.96 0.92 0.90 0.89 0.83 0.80 0.76 0.70 0.67 0.66 0.65 0.64 0.64 0.69 0.75 0.78 0.84 0.86 0.78 0.76 0.73 0.67 0.69 0.77 0.78 0.83 0.95 1.04 1.10 1.16 1.15 1.17 1.16

GEFSGL_prec_meanprecacc_258.txt.gz
Total_Precipitation_Accumulation
1.82 2.00 1.98 1.97 2.07 2.14 2.01 1.80 1.72 1.71 1.74 1.81 2.01 2.08 2.04 2.07 2.17 2.22 2.20 2.50 2.61 2.58 2.55 2.55 2.54 2.62 2.60 2.51 2.60 2.77 3.01 3.05 2.73 2.27 2.16 2.12 2.08 1.96 1.92 1.78 1.65 1.57 1.37
1.71 1.91 1.98 1.99 2.03 2.03 1.91 1.73 1.67 1.69 1.77 1.84 1.97 1.99 1.91 1.91 2.09 2.13 2.20 2.45 2.58 2.48 2.46 2.45 2.27 2.30 2.34 2.22 2.32 2.41 2.54 2.74 2.71 2.44 2.41 2.38 2.31 2.18 2.13 2.06 1.86 1.61 1.34
1.61 1.95 2.11 2.11 2.05 1.97 1.80 1.59 1.55 1.60 1.72 1.79 1.79 1.81 1.86 1.96 2.05 2.07 2.08 2.10 2.12 2.21 2.42 2.51 2.31 2.28 2.17 2.15 2.16 2.13 2.20 2.32 2.50 2.43 2.37 2.42 2.35 2.32 2.23 2.03 1.88 1.72 1.41
1.51 1.71 1.81 1.73 1.68 1.69 1.61 1.52 1.47 1.52 1.60 1.68 1.75 1.83 1.89 1.93 1.96 2.03 2.06 2.02 2.01 2.06 2.19 2.25 2.22 2.17 2.10 2.17 2.08 2.04 2.10 2.23 2.35 2.36 2.30 2.41 2.41 2.33 2.32 2.13 2.13 2.00 1.83
1.20 1.32 1.46 1.47 1.45 1.43 1.49 1.54 1.57 1.66 1.65 1.72 1.78 1.80 1.80 1.79 1.69 1.71 1.78 1.81 1.95 1.91 1.82 1.83 1.84 1.88 1.88 1.89 1.76 1.88 2.06 2.15 2.19 2.22 2.22 2.37 2.55 2.57 2.39 2.30 2.36 2.34 2.18
1.07 1.18 1.38 1.51 1.54 1.54 1.58 1.67 1.72 1.72 1.72 1.75 1.72 1.76 1.75 1.51 1.64 1.63 1.63 1.77 1.87 1.85 1.75 1.65 1.57 1.56 1.51 1.50 1.48 1.55 1.79 1.96 2.03 2.13 2.14 2.27 2.48 2.67 2.73 2.67 2.54 2.46 2.45
1.21 1.35 1.52 1.62 1.71 1.73 1.69 1.79 1.76 1.77 1.81 1.78 1.70 1.69 1.73 1.77 1.78 1.62 1.48 1.48 1.61 1.65 1.61 1.59 1.43 1.34 1.47 1.43 1.46 1.45 1.47 1.60 1.73 1.91 2.00 1.99 2.15 2.39 2.61 2.57 2.65 2.67 2.64
1.46 1.65 1.74 1.85 1.81 1.79 1.78 1.81 1.88 1.96 1.98 1.94 1.88 1.80 1.81 1.79 1.73 1.52 1.51 1.46 1.51 1.53 1.56 1.60 1.59 1.50 1.52 1.62 1.60 1.53 1.42 1.38 1.46 1.54 1.65 1.78 1.98 2.24 2.47 2.45 2.48 2.55 2.58
1.56 1.69 1.85 1.95 1.99 2.01 2.03 1.98 2.03 2.11 2.07 1.99 1.96 2.00 1.95 1.97 2.00 1.80 1.78 1.65 1.69 1.72 1.75 1.75 1.71 1.61 1.70 1.63 1.56 1.55 1.49 1.46 1.51 1.57 1.54 1.66 1.90 2.01 2.13 2.19 2.17 2.22 2.16
1.60 1.72 1.90 2.12 2.18 2.21 2.34 2.41 2.33 2.29 2.15 2.16 2.16 2.14 2.16 2.20 2.41 2.20 2.01 1.86 1.90 1.91 2.00 1.98 1.99 1.79 1.75 1.64 1.52 1.53 1.53 1.54 1.59 1.55 1.51 1.49 1.53 1.71 1.88 1.89 2.04 2.18 2.06
1.64 1.77 1.97 2.16 2.24 2.32 2.47 2.54 2.49 2.44 2.41 2.36 2.28 2.31 2.30 2.31 2.47 2.24 2.04 1.92 2.00 2.13 2.12 2.02 2.06 2.01 1.78 1.74 1.65 1.60 1.59 1.56 1.56 1.57 1.55 1.52 1.56 1.64 1.72 1.81 2.03 2.19 2.19
1.56 1.68 1.81 1.98 2.03 2.11 2.37 2.45 2.51 2.53 2.48 2.39 2.32 2.20 2.22 2.21 2.17 2.06 1.96 1.91 1.99 2.10 2.16 2.07 2.03 1.97 1.70 1.59 1.46 1.44 1.45 1.35 1.31 1.43 1.45 1.47 1.50 1.50 1.55 1.73 1.92 2.00 2.02
1.62 1.75 1.89 1.96 2.03 2.14 2.24 2.26 2.33 2.41 2.36 2.25 2.23 2.17 2.14 2.15 2.13 1.90 1.68 1.66 1.69 1.72 1.87 1.96 1.87 1.75 1.52 1.31 1.26 1.23 1.14 1.02 1.06 1.16 1.18 1.18 1.20 1.26 1.37 1.54 1.73 1.82 1.81
1.70 1.75 1.83 1.94 1.94 1.98 2.11 2.21 2.31 2.42 2.48 2.38 2.27 2.18 2.16 2.10 1.97 1.78 1.58 1.50 1.59 1.69 1.77 1.81 1.68 1.56 1.37 1.23 1.14 1.04 0.98 1.02 1.06 1.08 1.11 1.17 1.23 1.28 1.31 1.36 1.46 1.57 1.61
1.59 1.64 1.68 1.71 1.79 1.88 1.93 2.01 2.03 2.13 2.14 2.12 2.07 2.05 2.04 1.98 1.80 1.71 1.56 1.44 1.52 1.65 1.73 1.76 1.64 1.59 1.50 1.37 1.26 1.19 1.16 1.16 1.11 1.09 1.14 1.15 1.17 1.23 1.25 1.27 1.38 1.38 1.34
1.65 1.67 1.60 1.56 1.62 1.67 1.71 1.71 1.71 1.67 1.68 1.64 1.65 1.65 1.61 1.54 1.42 1.28 1.25 1.25 1.30 1.44 1.49 1.62 1.68 1.65 1.59 1.49 1.35 1.23 1.18 1.15 1.10 1.11 1.15 1.17 1.16 1.18 1.24 1.23 1.29 1.31 1.24
1.55 1.61 1.60 1.57 1.61 1.60 1.60 1.62 1.65 1.60 1.51 1.45 1.43 1.43 1.47 1.43 1.36 1.31 1.32 1.34 1.29 1.32 1.33 1.46 1.53 1.49 1.46 1.40 1.28 1.16 1.11 1.13 1.21 1.22 1.23 1.22 1.27 1.29 1.33 1.31 1.28 1.32 1.27
1.33 1.42 1.53 1.63 1.66 1.69 1.71 1.75 1.80 1.85 1.78 1.60 1.46 1.38 1.31 1.28 1.22 1.24 1.28 1.23 1.16 1.16 1.24 1.36 1.37 1.30 1.26 1.23 1.20 1.14 1.14 1.22 1.32 1.30 1.28 1.29 1.30 1.30 1.33 1.34 1.30 1.28 1.27
1.27 1.32 1.34 1.40 1.49 1.56 1.57 1.60 1.68 1.76 1.78 1.66 1.51 1.40 1.30 1.23 1.16 1.13 1.10 1.01 1.04 1.13 1.25 1.29 1.30 1.29 1.19 1.15 1.15 1.12 1.10 1.13 1.23 1.29 1.27 1.30 1.31 1.32 1.31 1.29 1.32 1.33 1.25
1.27 1.31 1.30 1.27 1.27 1.31 1.35 1.42 1.50 1.59 1.64 1.56 1.45 1.33 1.20 1.12 0.99 0.94 0.90 0.88 0.94 1.00 1.08 1.14 1.17 1.14 1.05 1.07 1.09 1.08 1.05 1.10 1.21 1.25 1.23 1.26 1.31 1.30 1.22 1.19 1.20 1.23 1.16
1.29 1.26 1.24 1.23 1.24 1.26 1.30 1.36 1.39 1.43 1.48 1.41 1.28 1.13 1.03 0.93 0.84 0.79 0.78 0.82 0.91 0.99 1.06 1.11 1.11 1.06 1.06 1.10 1.12 1.12 1.09 1.14 1.21 1.22 1.22 1.25 1.29 1.29 1.21 1.16 1.13 1.16 1.18
1.30 1.20 1.13 1.13 1.19 1.24 1.27 1.34 1.37 1.35 1.30 1.22 1.12 0.95 0.91 0.82 0.76 0.76 0.80 0.85 0.90 1.00 1.03 1.04 1.07 1.05 1.01 1.02 1.06 1.11 1.13 1.17 1.25 1.26 1.23 1.24 1.28 1.28 1.28 1.24 1.22 1.20 1.20
1.37 1.24 1.14 1.10 1.10 1.11 1.13 1.19 1.24 1.20 1.12 1.05 0.99 0.94 0.88 0.86 0.76 0.75 0.81 0.89 0.95 0.96 0.92 0.92 0.96 0.99 0.99 1.01 1.02 1.08 1.14 1.18 1.22 1.24 1.30 1.33 1.31 1.28 1.27 1.21 1.20 1.20 1.19
1.38 1.27 1.14 1.04 1.05 1.09 1.12 1.16 1.18 1.14 1.06 0.99 0.96 0.93 0.91 0.91 0.84 0.82 0.86 0.95 0.92 0.85 0.82 0.84 0.87 0.89 0.93 1.00 1.00 1.00 1.05 1.11 1.10 1.09 1.11 1.15 1.17 1.18 1.21 1.19 1.19 1.17 1.19
1.34 1.27 1.15 1.04 1.00 1.02 1.06 1.13 1.14 1.10 1.04 0.95 0.92 0.92 0.95 0.99 0.93 0.88 0.87 0.87 0.82 0.78 0.73 0.77 0.81 0.83 0.86 0.90 0.94 0.95 0.96 0.92 0.91 0.93 0.96 1.01 1.07 1.14 1.20 1.20 1.20 1.20 1.20
1.14 1.07 1.00 0.92 0.86 0.87 0.94 1.02 1.04 1.03 1.01 0.97 0.96 0.95 0.90 0.88 0.83 0.76 0.73 0.73 0.71 0.69 0.69 0.73 0.80 0.82 0.87 0.89 0.81 0.78 0.75 0.69 0.71 0.79 0.79 0.84 0.97 1.06 1.12 1.19 1.19 1.21 1.20

GEFSGL_prec_meanprecacc_264.txt.gz
Total_Precipitation_Accumulation
1.83 2.02 2.01 2.00 2.11 2.17 2.04 1.82 1.74 1.73 1.76 1.83 2.02 2.10 2.07 2.10 2.19 2.24 2.23 2.52 2.64 2.62 2.59 2.60 2.59 2.70 2.72 2.65 2.72 2.85 3.08 3.13 2.80 2.32 2.20 2.15 2.13 2.02 1.98 1.84 1.72 1.62 1.40
1.73 1.92 2.00 2.01 2.05 2.06 1.94 1.76 1.70 1.73 1.80 1.87 1.99 2.01 1.93 1.93 2.11 2.15 2.22 2.48 2.61 2.51 2.49 2.50 2.31 2.36 2.42 2.31 2.42 2.48 2.60 2.81 2.78 2.49 2.46 2.44 2.38 2.24 2.19 2.12 1.92 1.66 1.37
1.62 1.96 2.12 2.13 2.07 1.99 1.82 1.62 1.57 1.62 1.74 1.80 1.81 1.83 1.88 1.98 2.07 2.08 2.09 2.11 2.14 2.23 2.45 2.55 2.35 2.33 2.23 2.21 2.23 2.19 2.26 2.38 2.57 2.50 2.42 2.48 2.41 2.38 2.29 2.08 1.92 1.77 1.44
1.51 1.72 1.83 1.74 1.70 1.71 1.63 1.53 1.48 1.52 1.60 1.69 1.76 1.84 1.90 1.94 1.97 2.03 2.07 2.03 2.02 2.07 2.21 2.27 2.25 2.21 2.15 2.23 2.14 2.11 2.17 2.29 2.42 2.43 2.35 2.47 2.47 2.39 2.38 2.20 2.19 2.04 1.85
1.22 1.33 1.47 1.48 1.46 1.46 1.51 1.55 1.58 1.66 1.66 1.73 1.79 1.81 1.81 1.79 1.69 1.72 1.78 1.82 1.96 1.93 1.84 1.86 1.88 1.91 1.92 1.93 1.79 1.93 2.12 2.23 2.27 2.29 2.28 2.43 2.59 2.62 2.43 2.34 2.39 2.36 2.19
1.09 1.19 1.39 1.53 1.56 1.57 1.60 1.69 1.73 1.73 1.74 1.77 1.74 1.78 1.77 1.52 1.65 1.65 1.64 1.77 1.88 1.88 1.78 1.68 1.59 1.59 1.54 1.54 1.51 1.58 1.82 2.00 2.10 2.20 2.19 2.32 2.54 2.72 2.78 2.71 2.57 2.49 2.47
1.22 1.35 1.53 1.64 1.73 1.74 1.70 1.80 1.78 1.79 1.84 1.80 1.73 1.72 1.76 1.80 1.82 1.65 1.51 1.50 1.62 1.68 1.66 1.64 1.46 1.37 1.52 1.48 1.52 1.48 1.50 1.63 1.77 1.96 2.04 2.03 2.20 2.45 2.66 2.60 2.67 2.70 2.69
1.47 1.65 1.76 1.86 1.82 1.80 1.80 1.82 1.89 1.97 2.00 1.96 1.90 1.84 1.85 1.83 1.76 1.54 1.54 1.48 1.53 1.57 1.60 1.65 1.65 1.56 1.58 1.68 1.65 1.58 1.47 1.42 1.50 1.57 1.68 1.81 2.02 2.29 2.52 2.50 2.53 2.60 2.63
1.57 1.70 1.87 1.97 2.00 2.02 2.04 2.00 2.05 2.13 2.09 2.01 1.98 2.03 1.98 1.99 2.03 1.82 1.80 1.67 1.71 1.76 1.80 1.80 1.75 1.65 1.74 1.67 1.61 1.61 1.54 1.51 1.55 1.59 1.56 1.67 1.91 2.03 2.16 2.24 2.22 2.27 2.20
1.61 1.73 1.91 2.14 2.20 2.22 2.36 2.43 2.35 2.31 2.17 2.18 2.18 2.17 2.18 2.21 2.43 2.23 2.03 1.88 1.92 1.93 2.02 2.00 2.00 1.81 1.77 1.68 1.56 1.59 1.60 1.61 1.65 1.60 1.54 1.51 1.54 1.72 1.91 1.94 2.09 2.23 2.11
1.66 1.79 1.99 2.17 2.26 2.34 2.49 2.56 2.52 2.46 2.43 2.37 2.30 2.33 2.32 2.34 2.50 2.27 2.07 1.95 2.02 2.15 2.14 2.05 2.08 2.03 1.82 1.78 1.70 1.65 1.65 1.61 1.60 1.60 1.57 1.55 1.59 1.67 1.76 1.86 2.07 2.25 2.25
1.60 1.71 1.84 2.01 2.04 2.13 2.39 2.47 2.52 2.55 2.49 2.41 2.34 2.22 2.24 2.24 2.20 2.09 2.00 1.94 2.03 2.14 2.19 2.11 2.07 2.01 1.75 1.64 1.51 1.48 1.48 1.38 1.34 1.46 1.48 1.50 1.52 1.53 1.58 1.77 1.97 2.05 2.08
1.65 1.78 1.92 1.99 2.05 2.16 2.26 2.28 2.35 2.43 2.38 2.27 2.25 2.18 2.16 2.18 2.16 1.93 1.72 1.69 1.73 1.76 1.90 1.99 1.90 1.78 1.56 1.36 1.31 1.28 1.17 1.05 1.09 1.18 1.20 1.20 1.22 1.28 1.40 1.58 1.77 1.87 1.86
1.72 1.77 1.85 1.96 1.97 2.01 2.14 2.23 2.34 2.44 2.51 2.40 2.29 2.20 2.18 2.13 2.00 1.81 1.62 1.54 1.62 1.73 1.80 1.83 1.70 1.58 1.39 1.26 1.19 1.09 1.02 1.05 1.09 1.11 1.13 1.19 1.25 1.30 1.34 1.40 1.50 1.61 1.65
1.60 1.66 1.71 1.75 1.83 1.92 1.96 2.04 2.06 2.16 2.18 2.16 2.10 2.08 2.07 2.01 1.85 1.76 1.61 1.49 1.56 1.70 1.77 1.80 1.67 1.62 1.53 1.40 1.30 1.23 1.19 1.19 1.14 1.11 1.15 1.17 1.19 1.26 1.28 1.31 1.42 1.43 1.38
1.67 1.70 1.63 1.58 1.65 1.70 1.74 1.73 1.75 1.70 1.72 1.69 1.70 1.70 1.65 1.59 1.46 1.33 1.30 1.31 1.36 1.50 1.54 1.67 1.73 1.69 1.63 1.53 1.40 1.28 1.22 1.18 1.13 1.14 1.17 1.19 1.19 1.21 1.27 1.26 1.32 1.34 1.27
1.57 1.64 1.62 1.59 1.64 1.63 1.63 1.65 1.68 1.63 1.55 1.49 1.47 1.47 1.51 1.47 1.39 1.35 1.38 1.43 1.38 1.41 1.40 1.53 1.60 1.57 1.54 1.48 1.34 1.20 1.15 1.17 1.25 1.25 1.26 1.25 1.29 1.32 1.37 1.34 1.31 1.35 1.30
1.35 1.44 1.55 1.65 1.69 1.72 1.74 1.79 1.84 1.89 1.81 1.63 1.48 1.41 1.35 1.31 1.26 1.29 1.35 1.31 1.25 1.26 1.32 1.43 1.45 1.39 1.35 1.30 1.27 1.20 1.19 1.26 1.37 1.34 1.32 1.32 1.34 1.34 1.36 1.37 1.34 1.31 1.30
1.28 1.33 1.35 1.41 1.51 1.60 1.60 1.64 1.72 1.80 1.82 1.71 1.54 1.44 1.35 1.27 1.20 1.18 1.15 1.06 1.10 1.20 1.32 1.36 1.37 1.35 1.25 1.20 1.20 1.16 1.15 1.19 1.28 1.34 1.32 1.35 1.36 1.39 1.39 1.37 1.40 1.40 1.32
1.29 1.32 1.32 1.30 1.31 1.34 1.39 1.46 1.54 1.63 1.68 1.61 1.51 1.39 1.26 1.19 1.06 1.00 0.94 0.92 1.00 1.06 1.14 1.19 1.22 1.18 1.10 1.11 1.14 1.12 1.09 1.15 1.26 1.31 1.29 1.32 1.37 1.37 1.29 1.27 1.29 1.31 1.24
1.31 1.28 1.28 1.27 1.28 1.30 1.34 1.40 1.43 1.48 1.53 1.47 1.34 1.21 1.11 1.00 0.91 0.85 0.84 0.87 0.95 1.03 1.10 1.16 1.15 1.10 1.09 1.13 1.16 1.16 1.13 1.19 1.26 1.28 1.27 1.30 1.35 1.34 1.27 1.23 1.21 1.24 1.26
1.33 1.23 1.17 1.17 1.25 1.30 1.33 1.39 1.43 1.41 1.37 1.30 1.20 1.05 1.00 0.90 0.84 0.84 0.87 0.91 0.96 1.06 1.09 1.11 1.12 1.09 1.05 1.06 1.10 1.15 1.19 1.23 1.30 1.31 1.28 1.30 1.34 1.34 1.35 1.32 1.31 1.29 1.30
1.41 1.28 1.18 1.15 1.17 1.19 1.22 1.28 1.33 1.29 1.21 1.13 1.06 1.01 0.95 0.92 0.83 0.83 0.88 0.97 1.04 1.05 1.01 0.99 1.01 1.03 1.03 1.06 1.06 1.13 1.18 1.23 1.27 1.28 1.34 1.38 1.36 1.33 1.32 1.27 1.27 1.28 1.27
1.41 1.30 1.17 1.07 1.09 1.13 1.17 1.23 1.25 1.20 1.11 1.05 1.01 0.98 0.95 0.96 0.91 0.88 0.92 1.01 0.99 0.92 0.87 0.88 0.91 0.92 0.97 1.04 1.04 1.04 1.08 1.15 1.15 1.14 1.16 1.21 1.23 1.24 1.26 1.25 1.25 1.23 1.25
1.36 1.30 1.17 1.07 1.06 1.07 1.11 1.17 1.19 1.16 1.08 0.99 0.96 0.96 1.00 1.03 0.99 0.95 0.94 0.94 0.88 0.83 0.77 0.81 0.85 0.87 0.90 0.94 0.98 0.99 1.01 0.98 0.95 0.98 1.00 1.06 1.12 1.20 1.25 1.25 1.26 1.25 1.25
1.17 1.10 1.02 0.95 0.92 0.93 1.00 1.06 1.08 1.08 1.05 1.01 1.01 1.01 0.97 0.95 0.90 0.83 0.81 0.81 0.79 0.76 0.75 0.79 0.85 0.87 0.93 0.94 0.86 0.84 0.81 0.74 0.76 0.83 0.83 0.88 1.00 1.10 1.17 1.24 1.24 1.27 1.25